Time,TemperatureF,DewpointF,PressureIn,WindDirection,WindDirectionDegrees,WindSpeedMPH,WindSpeedGustMPH,Humidity,HourlyPrecipIn,Conditions,Clouds,dailyrainin,SoftwareType,DateUTC
2013-02-03 00:00:00,21.2,19.8,30.04,South,178,0.0,0.0,94,0.00,,---,0.00,VWS V14.01,2013-02-03 05:00:00,
2013-02-03 00:01:00,21.2,19.8,30.04,South,178,0.0,0.0,94,0.00,,---,0.00,VWS V14.01,2013-02-03 05:01:00,
2013-02-03 00:05:00,21.2,19.8,30.03,NW,310,0.0,2.0,94,0.00,,---,0.00,VWS V14.01,2013-02-03 05:05:00,
2013-02-03 00:06:00,21.2,19.8,30.03,NW,310,0.0,2.0,94,0.00,,---,0.00,VWS V14.01,2013-02-03 05:06:00,
2013-02-03 00:10:00,21.3,20.1,30.04,NW,310,0.0,2.0,95,0.00,,---,0.00,VWS V14.01,2013-02-03 05:10:00,
2013-02-03 00:11:00,21.3,20.1,30.04,NW,310,0.0,2.0,95,0.00,,---,0.00,VWS V14.01,2013-02-03 05:11:00,
2013-02-03 00:16:00,21.4,20.2,30.04,NW,310,0.0,2.0,95,0.00,,---,0.00,VWS V14.01,2013-02-03 05:16:00,
2013-02-03 00:21:00,21.5,20.3,30.03,NW,310,0.0,2.0,95,0.00,,---,0.00,VWS V14.01,2013-02-03 05:21:00,
2013-02-03 00:22:00,21.5,20.3,30.03,NW,310,0.0,2.0,95,0.00,,---,0.00,VWS V14.01,2013-02-03 05:22:00,
2013-02-03 00:26:00,21.6,20.4,30.03,WSW,248,0.0,2.0,95,0.00,,---,0.00,VWS V14.01,2013-02-03 05:26:00,
2013-02-03 00:27:00,21.6,20.4,30.03,WSW,248,0.0,2.0,95,0.00,,---,0.00,VWS V14.01,2013-02-03 05:27:00,
2013-02-03 00:31:00,21.7,20.5,30.03,WSW,248,0.0,2.0,95,0.00,,---,0.00,VWS V14.01,2013-02-03 05:31:00,
2013-02-03 00:32:00,21.7,20.5,30.03,WSW,249,1.0,2.0,95,0.00,,---,0.00,VWS V14.01,2013-02-03 05:32:00,
2013-02-03 00:36:00,21.8,20.6,30.03,WSW,248,0.0,0.0,95,0.00,,---,0.00,VWS V14.01,2013-02-03 05:36:00,
2013-02-03 00:37:00,21.8,20.6,30.03,WSW,248,0.0,0.0,95,0.00,,---,0.00,VWS V14.01,2013-02-03 05:37:00,
2013-02-03 00:38:00,21.8,20.6,30.03,WSW,248,0.0,0.0,95,0.00,,---,0.00,VWS V14.01,2013-02-03 05:38:00,
2013-02-03 00:41:00,21.9,20.7,30.03,WSW,248,0.0,0.0,95,0.00,,---,0.00,VWS V14.01,2013-02-03 05:41:00,
2013-02-03 00:42:00,21.9,20.7,30.03,WSW,249,2.0,2.0,95,0.00,,---,0.00,VWS V14.01,2013-02-03 05:42:00,
2013-02-03 00:43:00,21.8,20.6,30.03,WSW,249,0.0,2.0,95,0.00,,---,0.00,VWS V14.01,2013-02-03 05:43:00,
2013-02-03 00:46:00,21.9,20.7,30.03,West,261,0.0,3.0,95,0.00,,---,0.00,VWS V14.01,2013-02-03 05:46:00,
2013-02-03 00:47:00,21.8,20.6,30.03,West,261,0.0,3.0,95,0.00,,---,0.00,VWS V14.01,2013-02-03 05:47:00,
2013-02-03 00:48:00,21.8,20.6,30.03,West,261,0.0,3.0,95,0.00,,---,0.00,VWS V14.01,2013-02-03 05:48:00,
2013-02-03 00:49:00,21.9,20.7,30.03,West,261,0.0,3.0,95,0.00,,---,0.00,VWS V14.01,2013-02-03 05:49:00,
2013-02-03 00:51:00,21.9,20.7,30.02,West,261,0.0,3.0,95,0.00,,---,0.00,VWS V14.01,2013-02-03 05:51:00,
2013-02-03 00:52:00,21.8,20.6,30.02,West,261,0.0,3.0,95,0.00,,---,0.00,VWS V14.01,2013-02-03 05:52:00,
2013-02-03 00:53:00,21.8,20.6,30.02,West,261,0.0,3.0,95,0.00,,---,0.00,VWS V14.01,2013-02-03 05:53:00,
2013-02-03 00:54:00,21.8,20.6,30.02,West,261,0.0,3.0,95,0.00,,---,0.00,VWS V14.01,2013-02-03 05:54:00,
2013-02-03 00:56:00,21.8,20.6,30.02,West,261,0.0,3.0,95,0.00,,---,0.00,VWS V14.01,2013-02-03 05:56:00,
2013-02-03 00:58:00,21.8,20.6,30.02,West,261,0.0,3.0,95,0.00,,---,0.00,VWS V14.01,2013-02-03 05:58:00,
2013-02-03 00:59:00,21.8,20.6,30.02,West,261,0.0,3.0,95,0.00,,---,0.00,VWS V14.01,2013-02-03 05:59:00,
2013-02-03 01:02:00,21.8,20.6,30.02,West,261,0.0,3.0,95,0.00,,---,0.00,VWS V14.01,2013-02-03 06:02:00,
2013-02-03 01:03:00,21.8,20.6,30.02,West,261,0.0,3.0,95,0.00,,---,0.00,VWS V14.01,2013-02-03 06:03:00,
2013-02-03 01:04:00,21.7,20.5,30.02,West,261,0.0,0.0,95,0.00,,---,0.00,VWS V14.01,2013-02-03 06:04:00,
2013-02-03 01:05:00,21.7,20.5,30.01,West,261,0.0,0.0,95,0.00,,---,0.00,VWS V14.01,2013-02-03 06:05:00,
2013-02-03 01:07:00,21.7,20.5,30.01,West,261,0.0,0.0,95,0.00,,---,0.00,VWS V14.01,2013-02-03 06:07:00,
2013-02-03 01:08:00,21.6,20.4,30.01,West,261,0.0,0.0,95,0.00,,---,0.00,VWS V14.01,2013-02-03 06:08:00,
2013-02-03 01:09:00,21.6,20.4,30.01,West,262,0.0,0.0,95,0.00,,---,0.00,VWS V14.01,2013-02-03 06:09:00,
2013-02-03 01:10:00,21.6,20.4,30.01,West,262,0.0,0.0,95,0.00,,---,0.00,VWS V14.01,2013-02-03 06:10:00,
2013-02-03 01:12:00,21.5,20.3,30.01,West,262,0.0,0.0,95,0.00,,---,0.00,VWS V14.01,2013-02-03 06:12:00,
2013-02-03 01:13:00,21.5,20.3,30.01,West,261,0.0,0.0,95,0.00,,---,0.00,VWS V14.01,2013-02-03 06:13:00,
2013-02-03 01:14:00,21.5,20.3,30.01,West,262,0.0,0.0,95,0.00,,---,0.00,VWS V14.01,2013-02-03 06:14:00,
2013-02-03 01:15:00,21.5,20.3,30.01,West,262,0.0,0.0,95,0.00,,---,0.00,VWS V14.01,2013-02-03 06:15:00,
2013-02-03 01:17:00,21.4,20.2,30.02,West,262,0.0,0.0,95,0.00,,---,0.00,VWS V14.01,2013-02-03 06:17:00,
2013-02-03 01:19:00,21.3,20.1,30.01,West,262,0.0,0.0,95,0.00,,---,0.00,VWS V14.01,2013-02-03 06:19:00,
2013-02-03 01:20:00,21.3,20.1,30.01,West,262,0.0,0.0,95,0.00,,---,0.00,VWS V14.01,2013-02-03 06:20:00,
2013-02-03 01:22:00,21.3,20.1,30.01,West,267,0.0,2.0,95,0.00,,---,0.00,VWS V14.01,2013-02-03 06:22:00,
2013-02-03 01:24:00,21.3,20.1,30.01,West,267,0.0,2.0,95,0.00,,---,0.00,VWS V14.01,2013-02-03 06:24:00,
2013-02-03 01:26:00,21.2,20.0,30.01,West,268,1.0,2.0,95,0.00,,---,0.00,VWS V14.01,2013-02-03 06:26:00,
2013-02-03 01:28:00,21.2,20.0,30.01,West,268,0.0,2.0,95,0.00,,---,0.00,VWS V14.01,2013-02-03 06:28:00,
2013-02-03 01:29:00,21.2,20.0,30.01,West,269,0.0,2.0,95,0.00,,---,0.00,VWS V14.01,2013-02-03 06:29:00,
2013-02-03 01:31:00,21.2,20.0,30.01,West,266,0.0,2.0,95,0.00,,---,0.00,VWS V14.01,2013-02-03 06:31:00,
2013-02-03 01:32:00,21.2,20.0,30.01,West,267,0.0,2.0,95,0.00,,---,0.00,VWS V14.01,2013-02-03 06:32:00,
2013-02-03 01:33:00,21.2,20.0,30.01,West,267,0.0,2.0,95,0.00,,---,0.00,VWS V14.01,2013-02-03 06:33:00,
2013-02-03 01:34:00,21.1,19.9,30.01,West,267,0.0,0.0,95,0.00,,---,0.00,VWS V14.01,2013-02-03 06:34:00,
2013-02-03 01:36:00,21.1,19.9,30.01,West,267,0.0,1.0,95,0.00,,---,0.00,VWS V14.01,2013-02-03 06:36:00,
2013-02-03 01:37:00,21.1,19.9,30.01,West,267,0.0,1.0,95,0.00,,---,0.00,VWS V14.01,2013-02-03 06:37:00,
2013-02-03 01:38:00,21.1,19.9,30.00,West,267,0.0,1.0,95,0.00,,---,0.00,VWS V14.01,2013-02-03 06:38:00,
2013-02-03 01:39:00,21.1,19.9,30.01,West,267,0.0,1.0,95,0.00,,---,0.00,VWS V14.01,2013-02-03 06:39:00,
2013-02-03 01:42:00,21.0,19.8,30.00,West,267,0.0,1.0,95,0.00,,---,0.00,VWS V14.01,2013-02-03 06:42:00,
2013-02-03 01:43:00,21.0,19.8,30.00,West,267,0.0,1.0,95,0.00,,---,0.00,VWS V14.01,2013-02-03 06:43:00,
2013-02-03 01:45:00,21.0,19.8,30.00,West,267,0.0,2.0,95,0.00,,---,0.00,VWS V14.01,2013-02-03 06:45:00,
2013-02-03 01:48:00,21.0,19.8,30.00,West,267,0.0,2.0,95,0.00,,---,0.00,VWS V14.01,2013-02-03 06:48:00,
2013-02-03 01:50:00,20.9,19.7,30.00,WNW,283,2.0,2.0,95,0.00,,---,0.00,VWS V14.01,2013-02-03 06:50:00,
2013-02-03 01:53:00,20.9,19.7,30.00,WNW,284,0.0,2.0,95,0.00,,---,0.00,VWS V14.01,2013-02-03 06:53:00,
2013-02-03 01:55:00,20.9,19.7,30.00,WNW,284,0.0,2.0,95,0.00,,---,0.00,VWS V14.01,2013-02-03 06:55:00,
2013-02-03 01:58:00,20.9,19.7,30.00,WNW,283,1.0,2.0,95,0.00,,---,0.00,VWS V14.01,2013-02-03 06:58:00,
2013-02-03 01:59:00,20.9,19.7,30.00,WNW,283,0.0,2.0,95,0.00,,---,0.00,VWS V14.01,2013-02-03 06:59:00,
2013-02-03 02:01:00,20.9,19.7,30.00,West,281,0.0,2.0,95,0.00,,---,0.00,VWS V14.01,2013-02-03 07:01:00,
2013-02-03 02:03:00,20.9,19.7,30.00,WNW,282,0.0,2.0,95,0.00,,---,0.00,VWS V14.01,2013-02-03 07:03:00,
2013-02-03 02:04:00,20.8,19.6,30.00,West,281,0.0,2.0,95,0.00,,---,0.00,VWS V14.01,2013-02-03 07:04:00,
2013-02-03 02:06:00,20.8,19.6,30.00,WNW,282,0.0,0.0,95,0.00,,---,0.00,VWS V14.01,2013-02-03 07:06:00,
2013-02-03 02:08:00,20.8,19.6,30.00,WNW,282,1.0,1.0,95,0.00,,---,0.00,VWS V14.01,2013-02-03 07:08:00,
2013-02-03 02:09:00,20.8,19.6,30.00,WNW,282,0.0,2.0,95,0.00,,---,0.00,VWS V14.01,2013-02-03 07:09:00,
2013-02-03 02:10:00,20.8,19.6,29.99,WNW,282,0.0,2.0,95,0.00,,---,0.00,VWS V14.01,2013-02-03 07:10:00,
2013-02-03 02:11:00,20.8,19.6,29.99,WNW,282,0.0,2.0,95,0.00,,---,0.00,VWS V14.01,2013-02-03 07:11:00,
2013-02-03 02:13:00,20.8,19.6,29.99,West,281,0.0,2.0,95,0.00,,---,0.00,VWS V14.01,2013-02-03 07:13:00,
2013-02-03 02:14:00,20.8,19.6,29.99,WNW,282,1.0,2.0,95,0.00,,---,0.00,VWS V14.01,2013-02-03 07:14:00,
2013-02-03 02:15:00,20.8,19.6,29.99,WNW,282,0.0,2.0,95,0.00,,---,0.00,VWS V14.01,2013-02-03 07:15:00,
2013-02-03 02:16:00,20.8,19.6,29.99,West,281,0.0,2.0,95,0.00,,---,0.00,VWS V14.01,2013-02-03 07:16:00,
2013-02-03 02:18:00,20.8,19.6,29.99,WNW,282,0.0,2.0,95,0.00,,---,0.00,VWS V14.01,2013-02-03 07:18:00,
2013-02-03 02:19:00,20.9,19.7,29.99,WNW,282,0.0,2.0,95,0.00,,---,0.00,VWS V14.01,2013-02-03 07:19:00,
2013-02-03 02:20:00,20.9,19.7,29.99,WNW,282,0.0,2.0,95,0.00,,---,0.00,VWS V14.01,2013-02-03 07:20:00,
2013-02-03 02:22:00,20.9,19.7,29.99,WNW,282,0.0,2.0,95,0.00,,---,0.00,VWS V14.01,2013-02-03 07:22:00,
2013-02-03 02:23:00,20.9,19.7,29.99,WNW,282,0.0,2.0,95,0.00,,---,0.00,VWS V14.01,2013-02-03 07:23:00,
2013-02-03 02:25:00,20.9,19.7,29.99,WNW,282,0.0,2.0,95,0.00,,---,0.00,VWS V14.01,2013-02-03 07:25:00,
2013-02-03 02:26:00,20.9,19.7,29.99,NW,304,2.0,2.0,95,0.00,,---,0.00,VWS V14.01,2013-02-03 07:26:00,
2013-02-03 02:27:00,21.0,19.8,29.99,NW,304,0.0,2.0,95,0.00,,---,0.00,VWS V14.01,2013-02-03 07:27:00,
2013-02-03 02:29:00,21.1,19.9,29.99,WNW,292,0.0,2.0,95,0.00,,---,0.00,VWS V14.01,2013-02-03 07:29:00,
2013-02-03 02:30:00,21.1,19.9,29.99,WNW,291,1.0,2.0,95,0.00,,---,0.00,VWS V14.01,2013-02-03 07:30:00,
2013-02-03 02:31:00,21.1,19.9,29.99,WNW,292,2.0,2.0,95,0.00,,---,0.00,VWS V14.01,2013-02-03 07:31:00,
2013-02-03 02:32:00,21.1,19.9,29.99,WNW,292,0.0,2.0,95,0.00,,---,0.00,VWS V14.01,2013-02-03 07:32:00,
2013-02-03 02:34:00,21.2,20.0,29.99,WNW,292,1.0,2.0,95,0.00,,---,0.00,VWS V14.01,2013-02-03 07:34:00,
2013-02-03 02:35:00,21.2,20.0,29.99,WNW,291,0.0,2.0,95,0.00,,---,0.00,VWS V14.01,2013-02-03 07:35:00,
2013-02-03 02:36:00,21.2,20.0,29.99,WNW,291,0.0,2.0,95,0.00,,---,0.00,VWS V14.01,2013-02-03 07:36:00,
2013-02-03 02:38:00,21.3,20.1,29.99,WNW,292,0.0,2.0,95,0.00,,---,0.00,VWS V14.01,2013-02-03 07:38:00,
2013-02-03 02:40:00,21.3,20.1,29.99,WNW,286,2.0,3.0,95,0.00,,---,0.00,VWS V14.01,2013-02-03 07:40:00,
2013-02-03 02:41:00,21.3,20.1,29.99,WNW,286,0.0,3.0,95,0.00,,---,0.00,VWS V14.01,2013-02-03 07:41:00,
2013-02-03 02:42:00,21.3,20.1,29.99,WNW,286,0.0,3.0,95,0.00,,---,0.00,VWS V14.01,2013-02-03 07:42:00,
2013-02-03 02:43:00,21.4,20.2,29.99,WNW,286,0.0,3.0,95,0.00,,---,0.00,VWS V14.01,2013-02-03 07:43:00,
2013-02-03 02:46:00,21.4,20.4,29.98,WNW,286,1.0,3.0,96,0.00,,---,0.00,VWS V14.01,2013-02-03 07:46:00,
2013-02-03 02:47:00,21.4,20.4,29.98,WNW,286,0.0,3.0,96,0.00,,---,0.00,VWS V14.01,2013-02-03 07:47:00,
2013-02-03 02:48:00,21.4,20.4,29.98,WNW,286,1.0,3.0,96,0.00,,---,0.00,VWS V14.01,2013-02-03 07:48:00,
2013-02-03 02:51:00,21.5,20.5,29.98,WNW,286,0.0,3.0,96,0.00,,---,0.00,VWS V14.01,2013-02-03 07:51:00,
2013-02-03 02:52:00,21.5,20.5,29.98,WNW,286,0.0,3.0,96,0.00,,---,0.00,VWS V14.01,2013-02-03 07:52:00,
2013-02-03 02:53:00,21.5,20.5,29.98,WNW,286,1.0,3.0,96,0.00,,---,0.00,VWS V14.01,2013-02-03 07:53:00,
2013-02-03 02:56:00,21.5,20.5,29.98,WNW,292,1.0,3.0,96,0.00,,---,0.00,VWS V14.01,2013-02-03 07:56:00,
2013-02-03 02:57:00,21.6,20.6,29.98,WNW,292,0.0,3.0,96,0.00,,---,0.00,VWS V14.01,2013-02-03 07:57:00,
2013-02-03 02:59:00,21.5,20.5,29.98,WNW,292,0.0,3.0,96,0.00,,---,0.00,VWS V14.01,2013-02-03 07:59:00,
2013-02-03 03:01:00,21.6,20.6,29.97,WNW,292,1.0,3.0,96,0.00,,---,0.00,VWS V14.01,2013-02-03 08:01:00,
2013-02-03 03:02:00,21.6,20.6,29.97,WNW,292,0.0,3.0,96,0.00,,---,0.00,VWS V14.01,2013-02-03 08:02:00,
2013-02-03 03:03:00,21.6,20.6,29.97,WNW,292,1.0,3.0,96,0.00,,---,0.00,VWS V14.01,2013-02-03 08:03:00,
2013-02-03 03:04:00,21.6,20.6,29.98,WNW,292,1.0,1.0,96,0.00,,---,0.00,VWS V14.01,2013-02-03 08:04:00,
2013-02-03 03:06:00,21.6,20.6,29.97,WNW,292,0.0,1.0,96,0.00,,---,0.00,VWS V14.01,2013-02-03 08:06:00,
2013-02-03 03:07:00,21.6,20.6,29.98,WNW,292,0.0,1.0,96,0.00,,---,0.00,VWS V14.01,2013-02-03 08:07:00,
2013-02-03 03:09:00,21.7,20.7,29.97,WNW,292,1.0,2.0,96,0.00,,---,0.00,VWS V14.01,2013-02-03 08:09:00,
2013-02-03 03:11:00,21.7,20.7,29.97,WNW,296,2.0,2.0,96,0.00,,---,0.00,VWS V14.01,2013-02-03 08:11:00,
2013-02-03 03:12:00,21.7,20.7,29.97,WNW,295,1.0,2.0,96,0.00,,---,0.00,VWS V14.01,2013-02-03 08:12:00,
2013-02-03 03:14:00,21.7,20.7,29.97,WSW,245,0.0,4.0,96,0.00,,---,0.00,VWS V14.01,2013-02-03 08:14:00,
2013-02-03 03:17:00,21.7,20.7,29.97,WNW,285,0.0,4.0,96,0.00,,---,0.00,VWS V14.01,2013-02-03 08:17:00,
2013-02-03 03:19:00,21.7,20.7,29.97,NW,323,0.0,4.0,96,0.00,,---,0.00,VWS V14.01,2013-02-03 08:19:00,
2013-02-03 03:20:00,21.7,20.7,29.97,West,281,0.0,4.0,96,0.00,,---,0.00,VWS V14.01,2013-02-03 08:20:00,
2013-02-03 03:22:00,21.7,20.7,29.97,WNW,284,0.0,4.0,96,0.00,,---,0.00,VWS V14.01,2013-02-03 08:22:00,
2013-02-03 03:23:00,21.7,20.7,29.97,WNW,287,0.0,4.0,96,0.00,,---,0.00,VWS V14.01,2013-02-03 08:23:00,
2013-02-03 03:24:00,21.7,20.7,29.97,WNW,287,0.0,4.0,96,0.00,,---,0.00,VWS V14.01,2013-02-03 08:24:00,
2013-02-03 03:25:00,21.8,20.8,29.97,WNW,287,0.0,4.0,96,0.00,,---,0.00,VWS V14.01,2013-02-03 08:25:00,
2013-02-03 03:28:00,21.7,20.7,29.96,WNW,290,0.0,4.0,96,0.00,,---,0.00,VWS V14.01,2013-02-03 08:28:00,
2013-02-03 03:29:00,21.8,20.8,29.96,WNW,290,1.0,4.0,96,0.00,,---,0.00,VWS V14.01,2013-02-03 08:29:00,
2013-02-03 03:31:00,21.7,20.7,29.96,NW,311,0.0,4.0,96,0.00,,---,0.00,VWS V14.01,2013-02-03 08:31:00,
2013-02-03 03:33:00,21.7,20.7,29.96,NW,311,0.0,4.0,96,0.00,,---,0.00,VWS V14.01,2013-02-03 08:33:00,
2013-02-03 03:34:00,21.7,20.7,29.96,NNW,335,0.0,0.0,96,0.00,,---,0.00,VWS V14.01,2013-02-03 08:34:00,
2013-02-03 03:36:00,21.7,20.7,29.96,NNW,335,0.0,1.0,96,0.00,,---,0.00,VWS V14.01,2013-02-03 08:36:00,
2013-02-03 03:38:00,21.7,20.7,29.96,NNW,335,0.0,2.0,96,0.00,,---,0.00,VWS V14.01,2013-02-03 08:38:00,
2013-02-03 03:39:00,21.6,20.6,29.95,NNW,335,0.0,2.0,96,0.00,,---,0.00,VWS V14.01,2013-02-03 08:39:00,
2013-02-03 03:42:00,21.6,20.6,29.95,NNW,335,0.0,2.0,96,0.00,,---,0.00,VWS V14.01,2013-02-03 08:42:00,
2013-02-03 03:43:00,21.6,20.6,29.95,NNW,334,0.0,2.0,96,0.00,,---,0.00,VWS V14.01,2013-02-03 08:43:00,
2013-02-03 03:45:00,21.6,20.6,29.95,NNW,335,0.0,2.0,96,0.00,,---,0.00,VWS V14.01,2013-02-03 08:45:00,
2013-02-03 03:47:00,21.5,20.5,29.95,NNW,334,0.0,2.0,96,0.00,,---,0.00,VWS V14.01,2013-02-03 08:47:00,
2013-02-03 03:48:00,21.5,20.5,29.95,NNW,334,0.0,2.0,96,0.00,,---,0.00,VWS V14.01,2013-02-03 08:48:00,
2013-02-03 03:49:00,21.4,20.4,29.95,NNW,334,0.0,2.0,96,0.00,,---,0.00,VWS V14.01,2013-02-03 08:49:00,
2013-02-03 03:50:00,21.4,20.4,29.95,NNW,334,0.0,2.0,96,0.00,,---,0.00,VWS V14.01,2013-02-03 08:50:00,
2013-02-03 03:52:00,21.3,20.3,29.95,NNW,334,0.0,2.0,96,0.00,,---,0.00,VWS V14.01,2013-02-03 08:52:00,
2013-02-03 03:54:00,21.3,20.1,29.95,NNW,334,0.0,2.0,95,0.00,,---,0.00,VWS V14.01,2013-02-03 08:54:00,
2013-02-03 03:56:00,21.2,20.0,29.95,NW,315,0.0,2.0,95,0.00,,---,0.00,VWS V14.01,2013-02-03 08:56:00,
2013-02-03 03:57:00,21.2,20.0,29.95,NW,315,0.0,2.0,95,0.00,,---,0.00,VWS V14.01,2013-02-03 08:57:00,
2013-02-03 03:59:00,21.2,20.2,29.95,NW,315,0.0,2.0,96,0.00,,---,0.00,VWS V14.01,2013-02-03 08:59:00,
2013-02-03 04:00:00,21.2,20.2,29.95,NW,315,0.0,2.0,96,0.00,,---,0.00,VWS V14.01,2013-02-03 09:00:00,
2013-02-03 04:01:00,21.1,20.1,29.95,NW,315,0.0,2.0,96,0.00,,---,0.00,VWS V14.01,2013-02-03 09:01:00,
2013-02-03 04:02:00,21.1,20.1,29.95,NW,315,0.0,2.0,96,0.00,,---,0.00,VWS V14.01,2013-02-03 09:02:00,
2013-02-03 04:04:00,21.1,19.9,29.95,NW,315,0.0,0.0,95,0.00,,---,0.00,VWS V14.01,2013-02-03 09:04:00,
2013-02-03 04:05:00,21.1,19.9,29.95,NW,315,0.0,0.0,95,0.00,,---,0.00,VWS V14.01,2013-02-03 09:05:00,
2013-02-03 04:07:00,21.0,19.8,29.95,NW,315,0.0,0.0,95,0.00,,---,0.00,VWS V14.01,2013-02-03 09:07:00,
2013-02-03 04:09:00,21.0,19.8,29.95,NW,315,0.0,0.0,95,0.00,,---,0.00,VWS V14.01,2013-02-03 09:09:00,
2013-02-03 04:11:00,20.9,19.7,29.95,NW,315,0.0,0.0,95,0.00,,---,0.00,VWS V14.01,2013-02-03 09:11:00,
2013-02-03 04:12:00,20.9,19.7,29.95,NW,315,0.0,0.0,95,0.00,,---,0.00,VWS V14.01,2013-02-03 09:12:00,
2013-02-03 04:14:00,20.9,19.7,29.95,NW,315,0.0,0.0,95,0.00,,---,0.00,VWS V14.01,2013-02-03 09:14:00,
2013-02-03 04:16:00,20.9,19.7,29.95,NW,315,0.0,0.0,95,0.00,,---,0.00,VWS V14.01,2013-02-03 09:16:00,
2013-02-03 04:17:00,20.9,19.7,29.95,NW,315,0.0,0.0,95,0.00,,---,0.00,VWS V14.01,2013-02-03 09:17:00,
2013-02-03 04:18:00,20.8,19.6,29.95,NW,315,0.0,0.0,95,0.00,,---,0.00,VWS V14.01,2013-02-03 09:18:00,
2013-02-03 04:19:00,20.8,19.6,29.95,NW,315,0.0,0.0,95,0.00,,---,0.00,VWS V14.01,2013-02-03 09:19:00,
2013-02-03 04:21:00,20.8,19.6,29.95,NW,315,0.0,0.0,95,0.00,,---,0.00,VWS V14.01,2013-02-03 09:21:00,
2013-02-03 04:22:00,20.8,19.6,29.95,NW,315,0.0,0.0,95,0.00,,---,0.00,VWS V14.01,2013-02-03 09:22:00,
2013-02-03 04:23:00,20.8,19.6,29.95,NW,315,0.0,0.0,95,0.00,,---,0.00,VWS V14.01,2013-02-03 09:23:00,
2013-02-03 04:24:00,20.8,19.6,29.95,NW,315,0.0,0.0,95,0.00,,---,0.00,VWS V14.01,2013-02-03 09:24:00,
2013-02-03 04:26:00,20.7,19.5,29.95,NW,315,0.0,0.0,95,0.00,,---,0.00,VWS V14.01,2013-02-03 09:26:00,
2013-02-03 04:28:00,20.7,19.5,29.95,NW,315,0.0,0.0,95,0.00,,---,0.00,VWS V14.01,2013-02-03 09:28:00,
2013-02-03 04:30:00,20.8,19.6,29.95,NW,315,0.0,0.0,95,0.00,,---,0.00,VWS V14.01,2013-02-03 09:30:00,
2013-02-03 04:32:00,20.7,19.5,29.95,NW,315,0.0,0.0,95,0.00,,---,0.00,VWS V14.01,2013-02-03 09:32:00,
2013-02-03 04:33:00,20.7,19.5,29.95,NW,315,0.0,0.0,95,0.00,,---,0.00,VWS V14.01,2013-02-03 09:33:00,
2013-02-03 04:35:00,20.7,19.5,29.95,NW,315,0.0,0.0,95,0.00,,---,0.00,VWS V14.01,2013-02-03 09:35:00,
2013-02-03 04:37:00,20.7,19.5,29.95,NW,315,0.0,0.0,95,0.00,,---,0.00,VWS V14.01,2013-02-03 09:37:00,
2013-02-03 04:38:00,20.7,19.5,29.95,NW,315,0.0,0.0,95,0.00,,---,0.00,VWS V14.01,2013-02-03 09:38:00,
2013-02-03 04:39:00,20.7,19.5,29.95,NW,315,0.0,0.0,95,0.00,,---,0.00,VWS V14.01,2013-02-03 09:39:00,
2013-02-03 04:40:00,20.7,19.5,29.95,NW,315,0.0,0.0,95,0.00,,---,0.00,VWS V14.01,2013-02-03 09:40:00,
2013-02-03 04:42:00,20.7,19.5,29.95,NW,315,0.0,0.0,95,0.00,,---,0.00,VWS V14.01,2013-02-03 09:42:00,
2013-02-03 04:43:00,20.7,19.5,29.95,NW,315,0.0,0.0,95,0.00,,---,0.00,VWS V14.01,2013-02-03 09:43:00,
2013-02-03 04:44:00,20.7,19.5,29.95,NW,315,0.0,0.0,95,0.00,,---,0.00,VWS V14.01,2013-02-03 09:44:00,
2013-02-03 04:45:00,20.6,19.4,29.95,NW,315,0.0,0.0,95,0.00,,---,0.00,VWS V14.01,2013-02-03 09:45:00,
2013-02-03 04:47:00,20.6,19.4,29.95,NW,315,0.0,0.0,95,0.00,,---,0.00,VWS V14.01,2013-02-03 09:47:00,
2013-02-03 04:48:00,20.6,19.4,29.95,NW,315,0.0,0.0,95,0.00,,---,0.00,VWS V14.01,2013-02-03 09:48:00,
2013-02-03 04:50:00,20.6,19.4,29.95,NW,315,0.0,0.0,95,0.00,,---,0.00,VWS V14.01,2013-02-03 09:50:00,
2013-02-03 04:52:00,20.6,19.4,29.94,NW,315,0.0,0.0,95,0.00,,---,0.00,VWS V14.01,2013-02-03 09:52:00,
2013-02-03 04:54:00,20.6,19.4,29.94,NW,315,0.0,0.0,95,0.00,,---,0.00,VWS V14.01,2013-02-03 09:54:00,
2013-02-03 04:55:00,20.6,19.4,29.94,NW,315,0.0,1.0,95,0.00,,---,0.00,VWS V14.01,2013-02-03 09:55:00,
2013-02-03 04:58:00,20.6,19.4,29.94,NW,315,0.0,1.0,95,0.00,,---,0.00,VWS V14.01,2013-02-03 09:58:00,
2013-02-03 04:59:00,20.6,19.4,29.94,NW,315,0.0,1.0,95,0.00,,---,0.00,VWS V14.01,2013-02-03 09:59:00,
2013-02-03 05:01:00,20.6,19.4,29.94,NW,315,0.0,1.0,95,0.00,,---,0.00,VWS V14.01,2013-02-03 10:01:00,
2013-02-03 05:03:00,20.6,19.4,29.94,NW,315,0.0,1.0,95,0.00,,---,0.00,VWS V14.01,2013-02-03 10:03:00,
2013-02-03 05:04:00,20.6,19.4,29.94,NW,315,0.0,0.0,95,0.00,,---,0.00,VWS V14.01,2013-02-03 10:04:00,
2013-02-03 05:07:00,20.6,19.4,29.94,NW,315,0.0,0.0,95,0.00,,---,0.00,VWS V14.01,2013-02-03 10:07:00,
2013-02-03 05:08:00,20.6,19.4,29.94,NW,315,0.0,0.0,95,0.00,,---,0.00,VWS V14.01,2013-02-03 10:08:00,
2013-02-03 05:09:00,20.5,19.3,29.94,NW,315,0.0,0.0,95,0.00,,---,0.00,VWS V14.01,2013-02-03 10:09:00,
2013-02-03 05:10:00,20.6,19.4,29.94,NW,315,0.0,0.0,95,0.00,,---,0.00,VWS V14.01,2013-02-03 10:10:00,
2013-02-03 05:12:00,20.5,19.3,29.94,NW,315,0.0,0.0,95,0.00,,---,0.00,VWS V14.01,2013-02-03 10:12:00,
2013-02-03 05:13:00,20.6,19.4,29.94,NW,315,0.0,0.0,95,0.00,,---,0.00,VWS V14.01,2013-02-03 10:13:00,
2013-02-03 05:14:00,20.5,19.3,29.94,NW,315,0.0,0.0,95,0.00,,---,0.00,VWS V14.01,2013-02-03 10:14:00,
2013-02-03 05:15:00,20.5,19.3,29.94,NW,315,0.0,0.0,95,0.00,,---,0.00,VWS V14.01,2013-02-03 10:15:00,
2013-02-03 05:17:00,20.5,19.3,29.95,NW,315,0.0,0.0,95,0.00,,---,0.00,VWS V14.01,2013-02-03 10:17:00,
2013-02-03 05:19:00,20.6,19.4,29.95,NW,315,0.0,0.0,95,0.00,,---,0.00,VWS V14.01,2013-02-03 10:19:00,
2013-02-03 05:20:00,20.6,19.4,29.95,NW,315,0.0,0.0,95,0.00,,---,0.00,VWS V14.01,2013-02-03 10:20:00,
2013-02-03 05:22:00,20.6,19.4,29.95,NW,315,0.0,0.0,95,0.00,,---,0.00,VWS V14.01,2013-02-03 10:22:00,
2013-02-03 05:24:00,20.6,19.4,29.95,NW,315,0.0,0.0,95,0.00,,---,0.00,VWS V14.01,2013-02-03 10:24:00,
2013-02-03 05:25:00,20.6,19.4,29.95,NW,315,0.0,0.0,95,0.00,,---,0.00,VWS V14.01,2013-02-03 10:25:00,
2013-02-03 05:26:00,20.6,19.4,29.95,NW,315,0.0,0.0,95,0.00,,---,0.00,VWS V14.01,2013-02-03 10:26:00,
2013-02-03 05:28:00,20.6,19.4,29.95,NW,315,0.0,0.0,95,0.00,,---,0.00,VWS V14.01,2013-02-03 10:28:00,
2013-02-03 05:30:00,20.6,19.4,29.94,NW,315,0.0,0.0,95,0.00,,---,0.00,VWS V14.01,2013-02-03 10:30:00,
2013-02-03 05:31:00,20.7,19.5,29.94,NW,315,0.0,0.0,95,0.00,,---,0.00,VWS V14.01,2013-02-03 10:31:00,
2013-02-03 05:33:00,20.7,19.5,29.94,NW,315,0.0,0.0,95,0.00,,---,0.00,VWS V14.01,2013-02-03 10:33:00,
2013-02-03 05:35:00,20.7,19.5,29.94,NW,315,0.0,0.0,95,0.00,,---,0.00,VWS V14.01,2013-02-03 10:35:00,
2013-02-03 05:36:00,20.7,19.5,29.94,NW,315,0.0,0.0,95,0.00,,---,0.00,VWS V14.01,2013-02-03 10:36:00,
2013-02-03 05:39:00,20.8,19.6,29.95,NW,315,0.0,0.0,95,0.00,,---,0.00,VWS V14.01,2013-02-03 10:39:00,
2013-02-03 05:40:00,20.8,19.6,29.94,NW,315,0.0,0.0,95,0.00,,---,0.00,VWS V14.01,2013-02-03 10:40:00,
2013-02-03 05:41:00,20.8,19.6,29.94,NW,315,0.0,0.0,95,0.00,,---,0.00,VWS V14.01,2013-02-03 10:41:00,
2013-02-03 05:44:00,20.8,19.6,29.94,NW,315,0.0,0.0,95,0.00,,---,0.00,VWS V14.01,2013-02-03 10:44:00,
2013-02-03 05:45:00,20.8,19.6,29.95,NW,315,0.0,0.0,95,0.00,,---,0.00,VWS V14.01,2013-02-03 10:45:00,
2013-02-03 05:46:00,20.8,19.6,29.94,NW,315,0.0,0.0,95,0.00,,---,0.00,VWS V14.01,2013-02-03 10:46:00,
2013-02-03 05:47:00,20.8,19.6,29.94,NW,315,0.0,0.0,95,0.00,,---,0.00,VWS V14.01,2013-02-03 10:47:00,
2013-02-03 05:49:00,20.8,19.6,29.95,NW,315,0.0,0.0,95,0.00,,---,0.00,VWS V14.01,2013-02-03 10:49:00,
2013-02-03 05:50:00,20.8,19.6,29.94,NW,315,0.0,0.0,95,0.00,,---,0.00,VWS V14.01,2013-02-03 10:50:00,
2013-02-03 05:51:00,20.9,19.7,29.94,NW,315,0.0,0.0,95,0.00,,---,0.00,VWS V14.01,2013-02-03 10:51:00,
2013-02-03 05:52:00,20.8,19.6,29.94,NW,315,0.0,0.0,95,0.00,,---,0.00,VWS V14.01,2013-02-03 10:52:00,
2013-02-03 05:54:00,20.9,19.7,29.94,NW,315,0.0,0.0,95,0.00,,---,0.00,VWS V14.01,2013-02-03 10:54:00,
2013-02-03 05:56:00,20.9,19.7,29.95,NW,315,0.0,0.0,95,0.00,,---,0.00,VWS V14.01,2013-02-03 10:56:00,
2013-02-03 05:57:00,20.9,19.7,29.94,NW,315,0.0,0.0,95,0.00,,---,0.00,VWS V14.01,2013-02-03 10:57:00,
2013-02-03 06:00:00,20.9,19.7,29.94,NW,315,0.0,0.0,95,0.00,,---,0.00,VWS V14.01,2013-02-03 11:00:00,
2013-02-03 06:01:00,20.9,19.7,29.95,NW,315,0.0,0.0,95,0.00,,---,0.00,VWS V14.01,2013-02-03 11:01:00,
2013-02-03 06:02:00,20.9,19.7,29.95,NW,315,0.0,0.0,95,0.00,,---,0.00,VWS V14.01,2013-02-03 11:02:00,
2013-02-03 06:03:00,20.9,19.7,29.94,NW,315,0.0,0.0,95,0.00,,---,0.00,VWS V14.01,2013-02-03 11:03:00,
2013-02-03 06:05:00,20.9,19.7,29.94,NW,315,0.0,0.0,95,0.00,,---,0.00,VWS V14.01,2013-02-03 11:05:00,
2013-02-03 06:06:00,20.9,19.7,29.94,NW,315,0.0,0.0,95,0.00,,---,0.00,VWS V14.01,2013-02-03 11:06:00,
2013-02-03 06:07:00,20.9,19.7,29.94,NW,315,0.0,0.0,95,0.00,,---,0.00,VWS V14.01,2013-02-03 11:07:00,
2013-02-03 06:08:00,20.9,19.7,29.94,NW,315,0.0,0.0,95,0.00,,---,0.00,VWS V14.01,2013-02-03 11:08:00,
2013-02-03 06:11:00,20.9,19.7,29.94,NW,315,0.0,0.0,95,0.00,,---,0.00,VWS V14.01,2013-02-03 11:11:00,
2013-02-03 06:13:00,20.9,19.7,29.94,NW,315,0.0,0.0,95,0.00,,---,0.00,VWS V14.01,2013-02-03 11:13:00,
2013-02-03 06:16:00,20.9,19.7,29.94,NW,315,0.0,0.0,95,0.00,,---,0.00,VWS V14.01,2013-02-03 11:16:00,
2013-02-03 06:18:00,21.0,19.8,29.94,NW,315,0.0,0.0,95,0.00,,---,0.00,VWS V14.01,2013-02-03 11:18:00,
2013-02-03 06:21:00,21.0,19.8,29.94,NW,315,0.0,0.0,95,0.00,,---,0.00,VWS V14.01,2013-02-03 11:21:00,
2013-02-03 06:22:00,21.0,19.8,29.94,NW,315,0.0,0.0,95,0.00,,---,0.00,VWS V14.01,2013-02-03 11:22:00,
2013-02-03 06:23:00,21.0,19.8,29.94,NW,315,0.0,0.0,95,0.00,,---,0.00,VWS V14.01,2013-02-03 11:23:00,
2013-02-03 06:27:00,21.0,19.8,29.94,NW,315,0.0,0.0,95,0.00,,---,0.00,VWS V14.01,2013-02-03 11:27:00,
2013-02-03 06:28:00,21.0,19.8,29.94,NW,315,0.0,0.0,95,0.00,,---,0.00,VWS V14.01,2013-02-03 11:28:00,
2013-02-03 06:29:00,21.0,19.8,29.94,NW,315,0.0,0.0,95,0.00,,---,0.00,VWS V14.01,2013-02-03 11:29:00,
2013-02-03 06:32:00,21.0,19.8,29.94,NW,315,0.0,0.0,95,0.00,,---,0.00,VWS V14.01,2013-02-03 11:32:00,
2013-02-03 06:33:00,21.0,19.8,29.94,NW,315,0.0,0.0,95,0.00,,---,0.00,VWS V14.01,2013-02-03 11:33:00,
2013-02-03 06:34:00,21.0,19.8,29.94,NW,315,0.0,0.0,95,0.00,,---,0.00,VWS V14.01,2013-02-03 11:34:00,
2013-02-03 06:35:00,21.0,19.8,29.94,NW,315,0.0,0.0,95,0.00,,---,0.00,VWS V14.01,2013-02-03 11:35:00,
2013-02-03 06:38:00,21.1,19.9,29.94,NW,315,0.0,0.0,95,0.00,,---,0.00,VWS V14.01,2013-02-03 11:38:00,
2013-02-03 06:39:00,21.0,19.8,29.94,NW,315,0.0,0.0,95,0.00,,---,0.00,VWS V14.01,2013-02-03 11:39:00,
2013-02-03 06:40:00,21.0,19.8,29.94,NW,315,0.0,0.0,95,0.00,,---,0.00,VWS V14.01,2013-02-03 11:40:00,
2013-02-03 06:43:00,21.0,19.8,29.94,NW,315,0.0,0.0,95,0.00,,---,0.00,VWS V14.01,2013-02-03 11:43:00,
2013-02-03 06:44:00,21.0,19.8,29.94,NW,315,0.0,0.0,95,0.00,,---,0.00,VWS V14.01,2013-02-03 11:44:00,
2013-02-03 06:45:00,21.0,19.8,29.94,NW,315,0.0,0.0,95,0.00,,---,0.00,VWS V14.01,2013-02-03 11:45:00,
2013-02-03 06:48:00,21.1,19.6,29.94,NW,315,0.0,0.0,94,0.00,,---,0.00,VWS V14.01,2013-02-03 11:48:00,
2013-02-03 06:49:00,21.1,19.6,29.94,NW,315,0.0,0.0,94,0.00,,---,0.00,VWS V14.01,2013-02-03 11:49:00,
2013-02-03 06:51:00,21.1,19.6,29.94,NW,315,0.0,0.0,94,0.00,,---,0.00,VWS V14.01,2013-02-03 11:51:00,
2013-02-03 06:53:00,21.1,19.6,29.95,NW,315,0.0,0.0,94,0.00,,---,0.00,VWS V14.01,2013-02-03 11:53:00,
2013-02-03 06:54:00,21.1,19.6,29.95,NW,315,0.0,0.0,94,0.00,,---,0.00,VWS V14.01,2013-02-03 11:54:00,
2013-02-03 06:55:00,21.1,19.6,29.95,NW,315,0.0,0.0,94,0.00,,---,0.00,VWS V14.01,2013-02-03 11:55:00,
2013-02-03 06:56:00,21.1,19.6,29.94,NW,315,0.0,0.0,94,0.00,,---,0.00,VWS V14.01,2013-02-03 11:56:00,
2013-02-03 06:59:00,21.1,19.6,29.95,NW,315,0.0,0.0,94,0.00,,---,0.00,VWS V14.01,2013-02-03 11:59:00,
2013-02-03 07:00:00,21.1,19.6,29.95,NW,315,0.0,0.0,94,0.00,,---,0.00,VWS V14.01,2013-02-03 12:00:00,
2013-02-03 07:02:00,21.1,19.6,29.95,NW,315,0.0,0.0,94,0.00,,---,0.00,VWS V14.01,2013-02-03 12:02:00,
2013-02-03 07:04:00,21.1,19.6,29.95,NW,315,0.0,0.0,94,0.00,,---,0.00,VWS V14.01,2013-02-03 12:04:00,
2013-02-03 07:05:00,21.1,19.9,29.95,NW,315,0.0,0.0,95,0.00,,---,0.00,VWS V14.01,2013-02-03 12:05:00,
2013-02-03 07:07:00,21.1,19.6,29.95,NW,315,0.0,0.0,94,0.00,,---,0.00,VWS V14.01,2013-02-03 12:07:00,
2013-02-03 07:09:00,21.2,19.8,29.95,NW,315,0.0,0.0,94,0.00,,---,0.00,VWS V14.01,2013-02-03 12:09:00,
2013-02-03 07:10:00,21.2,19.8,29.95,NW,315,0.0,0.0,94,0.00,,---,0.00,VWS V14.01,2013-02-03 12:10:00,
2013-02-03 07:13:00,21.2,19.8,29.95,NW,315,0.0,0.0,94,0.00,,---,0.00,VWS V14.01,2013-02-03 12:13:00,
2013-02-03 07:14:00,21.2,19.8,29.95,NW,315,0.0,0.0,94,0.00,,---,0.00,VWS V14.01,2013-02-03 12:14:00,
2013-02-03 07:15:00,21.2,19.8,29.95,NW,315,0.0,0.0,94,0.00,,---,0.00,VWS V14.01,2013-02-03 12:15:00,
2013-02-03 07:16:00,21.2,19.8,29.95,NW,315,0.0,0.0,94,0.00,,---,0.00,VWS V14.01,2013-02-03 12:16:00,
2013-02-03 07:18:00,21.2,19.8,29.95,NW,315,0.0,0.0,94,0.00,,---,0.00,VWS V14.01,2013-02-03 12:18:00,
2013-02-03 07:19:00,21.2,19.8,29.95,NW,315,0.0,0.0,94,0.00,,---,0.00,VWS V14.01,2013-02-03 12:19:00,
2013-02-03 07:21:00,21.2,19.8,29.95,NW,315,0.0,0.0,94,0.00,,---,0.00,VWS V14.01,2013-02-03 12:21:00,
2013-02-03 07:23:00,21.3,19.9,29.95,NW,315,0.0,0.0,94,0.00,,---,0.00,VWS V14.01,2013-02-03 12:23:00,
2013-02-03 07:24:00,21.3,19.9,29.95,NW,315,0.0,0.0,94,0.00,,---,0.00,VWS V14.01,2013-02-03 12:24:00,
2013-02-03 07:26:00,21.3,19.9,29.95,NW,315,0.0,0.0,94,0.00,,---,0.00,VWS V14.01,2013-02-03 12:26:00,
2013-02-03 07:27:00,21.3,19.9,29.95,NW,315,0.0,0.0,94,0.00,,---,0.00,VWS V14.01,2013-02-03 12:27:00,
2013-02-03 07:28:00,21.3,19.9,29.95,NW,315,0.0,0.0,94,0.00,,---,0.00,VWS V14.01,2013-02-03 12:28:00,
2013-02-03 07:30:00,21.3,19.9,29.95,NW,315,0.0,0.0,94,0.00,,---,0.00,VWS V14.01,2013-02-03 12:30:00,
2013-02-03 07:31:00,21.4,19.9,29.95,NW,315,0.0,0.0,94,0.00,,---,0.00,VWS V14.01,2013-02-03 12:31:00,
2013-02-03 07:32:00,21.4,19.9,29.95,NW,315,0.0,0.0,94,0.00,,---,0.00,VWS V14.01,2013-02-03 12:32:00,
2013-02-03 07:33:00,21.4,19.9,29.95,NW,315,0.0,0.0,94,0.00,,---,0.00,VWS V14.01,2013-02-03 12:33:00,
2013-02-03 07:35:00,21.4,19.9,29.95,NW,315,0.0,0.0,94,0.00,,---,0.00,VWS V14.01,2013-02-03 12:35:00,
2013-02-03 07:37:00,21.4,19.9,29.95,NW,315,0.0,0.0,94,0.00,,---,0.00,VWS V14.01,2013-02-03 12:37:00,
2013-02-03 07:38:00,21.4,19.9,29.95,NW,315,0.0,0.0,94,0.00,,---,0.00,VWS V14.01,2013-02-03 12:38:00,
2013-02-03 07:40:00,21.5,20.0,29.95,NW,315,0.0,0.0,94,0.00,,---,0.00,VWS V14.01,2013-02-03 12:40:00,
2013-02-03 07:42:00,21.5,20.0,29.95,NW,315,0.0,0.0,94,0.00,,---,0.00,VWS V14.01,2013-02-03 12:42:00,
2013-02-03 07:43:00,21.5,20.0,29.95,NW,315,0.0,0.0,94,0.00,,---,0.00,VWS V14.01,2013-02-03 12:43:00,
2013-02-03 07:45:00,21.5,20.0,29.95,NW,315,0.0,0.0,94,0.00,,---,0.00,VWS V14.01,2013-02-03 12:45:00,
2013-02-03 07:47:00,21.5,20.0,29.95,NW,315,0.0,0.0,94,0.00,,---,0.00,VWS V14.01,2013-02-03 12:47:00,
2013-02-03 07:48:00,21.5,20.0,29.95,NW,315,0.0,0.0,94,0.00,,---,0.00,VWS V14.01,2013-02-03 12:48:00,
2013-02-03 07:49:00,21.5,20.0,29.95,NW,315,0.0,0.0,94,0.00,,---,0.00,VWS V14.01,2013-02-03 12:49:00,
2013-02-03 07:50:00,21.6,20.1,29.95,NW,315,0.0,0.0,94,0.00,,---,0.00,VWS V14.01,2013-02-03 12:50:00,
2013-02-03 07:52:00,21.6,20.1,29.95,NW,315,0.0,0.0,94,0.00,,---,0.00,VWS V14.01,2013-02-03 12:52:00,
2013-02-03 07:53:00,21.6,20.1,29.95,NW,315,0.0,0.0,94,0.00,,---,0.00,VWS V14.01,2013-02-03 12:53:00,
2013-02-03 07:54:00,21.6,20.1,29.95,NW,315,0.0,0.0,94,0.00,,---,0.00,VWS V14.01,2013-02-03 12:54:00,
2013-02-03 07:55:00,21.6,20.1,29.95,NW,315,0.0,0.0,94,0.00,,---,0.00,VWS V14.01,2013-02-03 12:55:00,
2013-02-03 07:58:00,21.6,20.1,29.95,NW,315,0.0,0.0,94,0.00,,---,0.00,VWS V14.01,2013-02-03 12:58:00,
2013-02-03 07:59:00,21.6,20.1,29.95,NW,315,0.0,0.0,94,0.00,,---,0.00,VWS V14.01,2013-02-03 12:59:00,
2013-02-03 08:02:00,21.7,20.2,29.95,NW,315,0.0,0.0,94,0.00,,---,0.00,VWS V14.01,2013-02-03 13:02:00,
2013-02-03 08:03:00,21.7,20.2,29.95,NW,315,0.0,0.0,94,0.00,,---,0.00,VWS V14.01,2013-02-03 13:03:00,
2013-02-03 08:04:00,21.7,20.2,29.95,NW,315,0.0,0.0,94,0.00,,---,0.00,VWS V14.01,2013-02-03 13:04:00,
2013-02-03 08:08:00,21.8,20.1,29.95,NW,315,0.0,0.0,93,0.00,,---,0.00,VWS V14.01,2013-02-03 13:08:00,
2013-02-03 08:09:00,21.7,20.0,29.95,NW,315,0.0,0.0,93,0.00,,---,0.00,VWS V14.01,2013-02-03 13:09:00,
2013-02-03 08:13:00,21.8,20.1,29.95,NW,315,0.0,0.0,93,0.00,,---,0.00,VWS V14.01,2013-02-03 13:13:00,
2013-02-03 08:14:00,21.8,20.1,29.95,NW,315,0.0,0.0,93,0.00,,---,0.00,VWS V14.01,2013-02-03 13:14:00,
2013-02-03 08:15:00,21.8,20.1,29.95,NW,315,0.0,0.0,93,0.00,,---,0.00,VWS V14.01,2013-02-03 13:15:00,
2013-02-03 08:18:00,21.9,20.2,29.95,NW,315,0.0,0.0,93,0.00,,---,0.00,VWS V14.01,2013-02-03 13:18:00,
2013-02-03 08:19:00,21.9,20.2,29.95,NW,315,0.0,0.0,93,0.00,,---,0.00,VWS V14.01,2013-02-03 13:19:00,
2013-02-03 08:20:00,21.9,20.2,29.95,NW,315,0.0,0.0,93,0.00,,---,0.00,VWS V14.01,2013-02-03 13:20:00,
2013-02-03 08:24:00,22.0,20.3,29.95,NW,315,0.0,0.0,93,0.00,,---,0.00,VWS V14.01,2013-02-03 13:24:00,
2013-02-03 08:25:00,22.0,20.3,29.96,NW,315,0.0,0.0,93,0.00,,---,0.00,VWS V14.01,2013-02-03 13:25:00,
2013-02-03 08:29:00,22.1,20.4,29.96,NW,315,0.0,0.0,93,0.00,,---,0.00,VWS V14.01,2013-02-03 13:29:00,
2013-02-03 08:30:00,22.1,20.4,29.96,NW,315,0.0,0.0,93,0.00,,---,0.00,VWS V14.01,2013-02-03 13:30:00,
2013-02-03 08:34:00,22.2,20.5,29.96,NW,315,0.0,0.0,93,0.00,,---,0.00,VWS V14.01,2013-02-03 13:34:00,
2013-02-03 08:35:00,22.2,20.5,29.96,NW,315,0.0,0.0,93,0.00,,---,0.00,VWS V14.01,2013-02-03 13:35:00,
2013-02-03 08:36:00,22.3,20.6,29.96,NW,315,0.0,0.0,93,0.00,,---,0.00,VWS V14.01,2013-02-03 13:36:00,
2013-02-03 08:40:00,22.4,20.7,29.96,NW,315,0.0,0.0,93,0.00,,---,0.00,VWS V14.01,2013-02-03 13:40:00,
2013-02-03 08:41:00,22.4,20.7,29.95,NW,315,0.0,0.0,93,0.00,,---,0.00,VWS V14.01,2013-02-03 13:41:00,
2013-02-03 08:45:00,22.5,20.8,29.95,NW,315,0.0,0.0,93,0.00,,---,0.00,VWS V14.01,2013-02-03 13:45:00,
2013-02-03 08:46:00,22.6,20.9,29.95,NW,315,0.0,0.0,93,0.00,,---,0.00,VWS V14.01,2013-02-03 13:46:00,
2013-02-03 08:47:00,22.6,20.9,29.95,NW,315,0.0,0.0,93,0.00,,---,0.00,VWS V14.01,2013-02-03 13:47:00,
2013-02-03 08:50:00,22.7,21.0,29.95,NW,315,0.0,0.0,93,0.00,,---,0.00,VWS V14.01,2013-02-03 13:50:00,
2013-02-03 08:51:00,22.7,21.0,29.95,NW,315,0.0,0.0,93,0.00,,---,0.00,VWS V14.01,2013-02-03 13:51:00,
2013-02-03 08:52:00,22.8,21.1,29.95,NW,315,0.0,0.0,93,0.00,,---,0.00,VWS V14.01,2013-02-03 13:52:00,
2013-02-03 08:55:00,23.0,21.3,29.95,NW,315,0.0,0.0,93,0.00,,---,0.00,VWS V14.01,2013-02-03 13:55:00,
2013-02-03 08:56:00,23.0,21.3,29.95,NW,315,0.0,0.0,93,0.00,,---,0.00,VWS V14.01,2013-02-03 13:56:00,
2013-02-03 08:57:00,23.1,21.4,29.95,NW,315,0.0,0.0,93,0.00,,---,0.00,VWS V14.01,2013-02-03 13:57:00,
2013-02-03 09:00:00,23.1,21.4,29.95,NW,315,0.0,0.0,93,0.00,,---,0.00,VWS V14.01,2013-02-03 14:00:00,
2013-02-03 09:01:00,23.1,21.4,29.95,NW,315,0.0,0.0,93,0.00,,---,0.00,VWS V14.01,2013-02-03 14:01:00,
2013-02-03 09:02:00,23.1,21.4,29.95,NW,315,0.0,0.0,93,0.00,,---,0.00,VWS V14.01,2013-02-03 14:02:00,
2013-02-03 09:03:00,23.2,21.5,29.95,NW,315,0.0,0.0,93,0.00,,---,0.00,VWS V14.01,2013-02-03 14:03:00,
2013-02-03 09:06:00,23.2,21.5,29.95,NW,315,0.0,0.0,93,0.00,,---,0.00,VWS V14.01,2013-02-03 14:06:00,
2013-02-03 09:07:00,23.3,21.6,29.95,NW,315,0.0,0.0,93,0.00,,---,0.00,VWS V14.01,2013-02-03 14:07:00,
2013-02-03 09:08:00,23.3,21.6,29.95,NW,315,0.0,0.0,93,0.00,,---,0.00,VWS V14.01,2013-02-03 14:08:00,
2013-02-03 09:11:00,23.3,21.6,29.95,NW,315,0.0,0.0,93,0.00,,---,0.00,VWS V14.01,2013-02-03 14:11:00,
2013-02-03 09:12:00,23.3,21.6,29.95,NW,315,0.0,0.0,93,0.00,,---,0.00,VWS V14.01,2013-02-03 14:12:00,
2013-02-03 09:13:00,23.3,21.6,29.95,NW,315,0.0,0.0,93,0.00,,---,0.00,VWS V14.01,2013-02-03 14:13:00,
2013-02-03 09:17:00,23.4,21.7,29.95,NW,315,1.0,1.0,93,0.00,,---,0.00,VWS V14.01,2013-02-03 14:17:00,
2013-02-03 09:18:00,23.4,21.7,29.95,NW,315,0.0,1.0,93,0.00,,---,0.00,VWS V14.01,2013-02-03 14:18:00,
2013-02-03 09:22:00,23.3,21.3,29.95,NW,315,0.0,1.0,92,0.00,,---,0.00,VWS V14.01,2013-02-03 14:22:00,
2013-02-03 09:23:00,23.3,21.3,29.95,NW,315,0.0,1.0,92,0.00,,---,0.00,VWS V14.01,2013-02-03 14:23:00,
2013-02-03 09:27:00,23.2,21.2,29.94,NW,315,0.0,1.0,92,0.00,,---,0.00,VWS V14.01,2013-02-03 14:27:00,
2013-02-03 09:28:00,23.2,21.2,29.94,NW,315,0.0,1.0,92,0.00,,---,0.00,VWS V14.01,2013-02-03 14:28:00,
2013-02-03 09:29:00,23.2,21.2,29.94,NW,315,0.0,1.0,92,0.00,,---,0.00,VWS V14.01,2013-02-03 14:29:00,
2013-02-03 09:32:00,23.2,21.2,29.95,NW,315,0.0,1.0,92,0.00,,---,0.00,VWS V14.01,2013-02-03 14:32:00,
2013-02-03 09:33:00,23.1,21.1,29.95,NW,315,0.0,1.0,92,0.00,,---,0.00,VWS V14.01,2013-02-03 14:33:00,
2013-02-03 09:34:00,23.1,21.1,29.94,NW,315,0.0,0.0,92,0.00,,---,0.00,VWS V14.01,2013-02-03 14:34:00,
2013-02-03 09:38:00,23.2,21.2,29.95,NW,315,0.0,0.0,92,0.00,,---,0.00,VWS V14.01,2013-02-03 14:38:00,
2013-02-03 09:39:00,23.2,21.2,29.95,NW,315,0.0,0.0,92,0.00,,---,0.00,VWS V14.01,2013-02-03 14:39:00,
2013-02-03 09:43:00,23.2,21.2,29.94,NW,315,0.0,0.0,92,0.00,,---,0.00,VWS V14.01,2013-02-03 14:43:00,
2013-02-03 09:44:00,23.2,21.2,29.95,NW,315,0.0,0.0,92,0.00,,---,0.00,VWS V14.01,2013-02-03 14:44:00,
2013-02-03 09:45:00,23.2,21.2,29.95,NW,315,0.0,0.0,92,0.00,,---,0.00,VWS V14.01,2013-02-03 14:45:00,
2013-02-03 09:48:00,23.3,21.3,29.94,NW,315,0.0,0.0,92,0.00,,---,0.00,VWS V14.01,2013-02-03 14:48:00,
2013-02-03 09:49:00,23.3,21.3,29.94,NW,315,0.0,0.0,92,0.00,,---,0.00,VWS V14.01,2013-02-03 14:49:00,
2013-02-03 09:50:00,23.3,21.3,29.94,NW,315,0.0,0.0,92,0.00,,---,0.00,VWS V14.01,2013-02-03 14:50:00,
2013-02-03 09:53:00,23.5,21.5,29.94,NW,315,0.0,0.0,92,0.00,,---,0.00,VWS V14.01,2013-02-03 14:53:00,
2013-02-03 09:54:00,23.5,21.5,29.94,NW,315,0.0,0.0,92,0.00,,---,0.00,VWS V14.01,2013-02-03 14:54:00,
2013-02-03 09:55:00,23.6,21.6,29.94,NW,315,0.0,0.0,92,0.00,,---,0.00,VWS V14.01,2013-02-03 14:55:00,
2013-02-03 09:58:00,23.8,22.1,29.94,NW,315,0.0,0.0,93,0.00,,---,0.00,VWS V14.01,2013-02-03 14:58:00,
2013-02-03 09:59:00,23.8,22.1,29.94,NW,315,0.0,0.0,93,0.00,,---,0.00,VWS V14.01,2013-02-03 14:59:00,
2013-02-03 10:00:00,23.9,22.2,29.94,NW,315,0.0,0.0,93,0.00,,---,0.00,VWS V14.01,2013-02-03 15:00:00,
2013-02-03 10:03:00,24.0,22.0,29.94,NW,315,0.0,0.0,92,0.00,,---,0.00,VWS V14.01,2013-02-03 15:03:00,
2013-02-03 10:04:00,24.0,22.0,29.94,NW,315,0.0,0.0,92,0.00,,---,0.00,VWS V14.01,2013-02-03 15:04:00,
2013-02-03 10:05:00,24.0,22.0,29.94,NW,315,0.0,0.0,92,0.00,,---,0.00,VWS V14.01,2013-02-03 15:05:00,
2013-02-03 10:08:00,24.3,22.3,29.94,NW,315,0.0,0.0,92,0.00,,---,0.00,VWS V14.01,2013-02-03 15:08:00,
2013-02-03 10:09:00,24.3,22.3,29.94,NW,315,0.0,0.0,92,0.00,,---,0.00,VWS V14.01,2013-02-03 15:09:00,
2013-02-03 10:10:00,24.3,22.3,29.94,WSW,240,0.0,1.0,92,0.00,,---,0.00,VWS V14.01,2013-02-03 15:10:00,
2013-02-03 10:14:00,24.5,22.5,29.94,WSW,240,0.0,1.0,92,0.00,,---,0.00,VWS V14.01,2013-02-03 15:14:00,
2013-02-03 10:15:00,24.5,22.5,29.94,WSW,240,1.0,1.0,92,0.00,,---,0.00,VWS V14.01,2013-02-03 15:15:00,
2013-02-03 10:16:00,24.5,22.5,29.94,WSW,240,0.0,1.0,92,0.00,,---,0.00,VWS V14.01,2013-02-03 15:16:00,
2013-02-03 10:19:00,24.7,22.7,29.93,WSW,240,0.0,1.0,92,0.00,,---,0.00,VWS V14.01,2013-02-03 15:19:00,
2013-02-03 10:20:00,24.8,22.5,29.93,WSW,240,0.0,1.0,91,0.00,,---,0.00,VWS V14.01,2013-02-03 15:20:00,
2013-02-03 10:21:00,24.8,22.5,29.93,WSW,240,0.0,1.0,91,0.00,,---,0.00,VWS V14.01,2013-02-03 15:21:00,
2013-02-03 10:24:00,25.0,22.8,29.93,WSW,240,0.0,1.0,91,0.00,,---,0.00,VWS V14.01,2013-02-03 15:24:00,
2013-02-03 10:25:00,25.0,22.8,29.93,WSW,240,0.0,1.0,91,0.00,,---,0.00,VWS V14.01,2013-02-03 15:25:00,
2013-02-03 10:26:00,25.1,22.6,29.93,WSW,240,0.0,1.0,90,0.00,,---,0.00,VWS V14.01,2013-02-03 15:26:00,
2013-02-03 10:30:00,25.2,22.7,29.93,WSW,240,0.0,1.0,90,0.00,,---,0.00,VWS V14.01,2013-02-03 15:30:00,
2013-02-03 10:31:00,25.2,22.7,29.93,WSW,240,0.0,1.0,90,0.00,,---,0.00,VWS V14.01,2013-02-03 15:31:00,
2013-02-03 10:35:00,25.3,22.5,29.93,WSW,240,0.0,0.0,89,0.00,,---,0.00,VWS V14.01,2013-02-03 15:35:00,
2013-02-03 10:36:00,25.3,22.5,29.93,WSW,240,0.0,0.0,89,0.00,,---,0.00,VWS V14.01,2013-02-03 15:36:00,
2013-02-03 10:37:00,25.3,22.5,29.93,WSW,240,0.0,0.0,89,0.00,,---,0.00,VWS V14.01,2013-02-03 15:37:00,
2013-02-03 10:40:00,25.4,22.6,29.93,WSW,240,0.0,0.0,89,0.00,,---,0.00,VWS V14.01,2013-02-03 15:40:00,
2013-02-03 10:42:00,25.4,22.6,29.93,WSW,240,0.0,0.0,89,0.00,,---,0.00,VWS V14.01,2013-02-03 15:42:00,
2013-02-03 10:45:00,25.4,22.6,29.93,WSW,240,0.0,0.0,89,0.00,,---,0.00,VWS V14.01,2013-02-03 15:45:00,
2013-02-03 10:46:00,25.5,22.7,29.93,WSW,240,0.0,0.0,89,0.00,,---,0.00,VWS V14.01,2013-02-03 15:46:00,
2013-02-03 10:47:00,25.5,22.7,29.93,WSW,244,1.0,1.0,89,0.00,,---,0.00,VWS V14.01,2013-02-03 15:47:00,
2013-02-03 10:48:00,25.5,22.5,29.93,WNW,298,0.0,2.0,88,0.00,,---,0.00,VWS V14.01,2013-02-03 15:48:00,
2013-02-03 10:50:00,25.6,22.8,29.93,WNW,300,1.0,2.0,89,0.00,,---,0.00,VWS V14.01,2013-02-03 15:50:00,
2013-02-03 10:51:00,25.6,22.8,29.93,NW,304,0.0,2.0,89,0.00,,---,0.00,VWS V14.01,2013-02-03 15:51:00,
2013-02-03 10:52:00,25.6,22.8,29.93,NW,304,0.0,2.0,89,0.00,,---,0.00,VWS V14.01,2013-02-03 15:52:00,
2013-02-03 10:54:00,25.6,22.8,29.93,NW,304,0.0,2.0,89,0.00,,---,0.00,VWS V14.01,2013-02-03 15:54:00,
2013-02-03 10:56:00,25.6,22.8,29.93,NW,317,1.0,2.0,89,0.01,,---,0.01,VWS V14.01,2013-02-03 15:56:00,
2013-02-03 10:57:00,25.6,22.8,29.93,NW,315,1.0,2.0,89,0.01,,---,0.01,VWS V14.01,2013-02-03 15:57:00,
2013-02-03 10:59:00,25.6,22.8,29.92,NW,314,0.0,2.0,89,0.01,,---,0.01,VWS V14.01,2013-02-03 15:59:00,
2013-02-03 11:01:00,25.5,22.7,29.92,NW,307,2.0,2.0,89,0.01,,---,0.01,VWS V14.01,2013-02-03 16:01:00,
2013-02-03 11:02:00,25.5,22.7,29.92,WNW,302,1.0,2.0,89,0.01,,---,0.01,VWS V14.01,2013-02-03 16:02:00,
2013-02-03 11:04:00,25.4,22.6,29.93,NW,313,0.0,2.0,89,0.01,,---,0.01,VWS V14.01,2013-02-03 16:04:00,
2013-02-03 11:06:00,25.4,22.6,29.93,NNW,336,2.0,4.0,89,0.01,,---,0.01,VWS V14.01,2013-02-03 16:06:00,
2013-02-03 11:07:00,25.4,22.6,29.93,NNW,336,0.0,4.0,89,0.01,,---,0.01,VWS V14.01,2013-02-03 16:07:00,
2013-02-03 11:08:00,25.3,22.5,29.93,NNW,329,0.0,4.0,89,0.01,,---,0.01,VWS V14.01,2013-02-03 16:08:00,
2013-02-03 11:09:00,25.3,22.5,29.93,NW,315,2.0,4.0,89,0.01,,---,0.01,VWS V14.01,2013-02-03 16:09:00,
2013-02-03 11:11:00,25.3,22.5,29.92,WNW,288,1.0,4.0,89,0.01,,---,0.01,VWS V14.01,2013-02-03 16:11:00,
2013-02-03 11:12:00,25.3,22.5,29.92,WNW,284,0.0,4.0,89,0.01,,---,0.01,VWS V14.01,2013-02-03 16:12:00,
2013-02-03 11:13:00,25.3,22.5,29.92,WNW,287,0.0,4.0,89,0.01,,---,0.01,VWS V14.01,2013-02-03 16:13:00,
2013-02-03 11:14:00,25.3,22.5,29.92,WNW,286,1.0,4.0,89,0.01,,---,0.01,VWS V14.01,2013-02-03 16:14:00,
2013-02-03 11:16:00,25.2,22.7,29.92,WNW,289,1.0,4.0,90,0.01,,---,0.01,VWS V14.01,2013-02-03 16:16:00,
2013-02-03 11:17:00,25.2,22.4,29.92,NW,306,1.0,4.0,89,0.01,,---,0.01,VWS V14.01,2013-02-03 16:17:00,
2013-02-03 11:18:00,25.2,22.4,29.92,NW,306,1.0,4.0,89,0.01,,---,0.01,VWS V14.01,2013-02-03 16:18:00,
2013-02-03 11:20:00,25.1,22.6,29.92,NW,306,0.0,4.0,90,0.01,,---,0.01,VWS V14.01,2013-02-03 16:20:00,
2013-02-03 11:21:00,25.1,22.6,29.92,NW,307,0.0,4.0,90,0.01,,---,0.01,VWS V14.01,2013-02-03 16:21:00,
2013-02-03 11:22:00,25.1,22.6,29.92,NW,307,0.0,4.0,90,0.01,,---,0.01,VWS V14.01,2013-02-03 16:22:00,
2013-02-03 11:23:00,25.1,22.6,29.92,NW,307,0.0,4.0,90,0.01,,---,0.01,VWS V14.01,2013-02-03 16:23:00,
2013-02-03 11:25:00,25.1,22.6,29.92,NW,307,0.0,4.0,90,0.01,,---,0.01,VWS V14.01,2013-02-03 16:25:00,
2013-02-03 11:26:00,25.1,22.6,29.92,NW,307,0.0,4.0,90,0.01,,---,0.01,VWS V14.01,2013-02-03 16:26:00,
2013-02-03 11:27:00,25.2,23.0,29.92,NW,307,0.0,4.0,91,0.01,,---,0.01,VWS V14.01,2013-02-03 16:27:00,
2013-02-03 11:28:00,25.2,23.0,29.92,NW,307,0.0,4.0,91,0.01,,---,0.01,VWS V14.01,2013-02-03 16:28:00,
2013-02-03 11:31:00,25.3,23.0,29.92,NW,309,0.0,4.0,91,0.01,,---,0.01,VWS V14.01,2013-02-03 16:31:00,
2013-02-03 11:33:00,25.4,23.1,29.92,NW,309,0.0,4.0,91,0.01,,---,0.01,VWS V14.01,2013-02-03 16:33:00,
2013-02-03 11:36:00,25.6,23.3,29.91,NW,309,0.0,1.0,91,0.01,,---,0.01,VWS V14.01,2013-02-03 16:36:00,
2013-02-03 11:38:00,25.6,23.3,29.91,NW,309,1.0,1.0,91,0.01,,---,0.01,VWS V14.01,2013-02-03 16:38:00,
2013-02-03 11:41:00,25.7,23.4,29.91,WNW,295,2.0,3.0,91,0.01,,---,0.01,VWS V14.01,2013-02-03 16:41:00,
2013-02-03 11:43:00,25.7,23.4,29.91,WNW,296,0.0,3.0,91,0.01,,---,0.01,VWS V14.01,2013-02-03 16:43:00,
2013-02-03 11:44:00,25.7,23.4,29.91,WNW,296,0.0,3.0,91,0.01,,---,0.01,VWS V14.01,2013-02-03 16:44:00,
2013-02-03 11:46:00,25.7,23.4,29.90,WNW,296,0.0,3.0,91,0.01,,---,0.01,VWS V14.01,2013-02-03 16:46:00,
2013-02-03 11:48:00,25.8,23.5,29.91,WNW,295,0.0,3.0,91,0.01,,---,0.01,VWS V14.01,2013-02-03 16:48:00,
2013-02-03 11:50:00,25.8,23.8,29.90,North,355,0.0,3.0,92,0.01,,---,0.01,VWS V14.01,2013-02-03 16:50:00,
2013-02-03 11:52:00,26.0,24.0,29.90,North,355,0.0,3.0,92,0.01,,---,0.01,VWS V14.01,2013-02-03 16:52:00,
2013-02-03 11:54:00,26.0,24.0,29.90,NW,321,0.0,3.0,92,0.01,,---,0.01,VWS V14.01,2013-02-03 16:54:00,
2013-02-03 11:55:00,26.1,24.1,29.90,NW,321,0.0,3.0,92,0.01,,---,0.01,VWS V14.01,2013-02-03 16:55:00,
2013-02-03 11:57:00,26.1,24.1,29.90,WSW,250,0.0,3.0,92,0.01,,---,0.01,VWS V14.01,2013-02-03 16:57:00,
2013-02-03 11:59:00,26.2,23.9,29.90,NW,307,2.0,3.0,91,0.01,,---,0.01,VWS V14.01,2013-02-03 16:59:00,
2013-02-03 12:00:00,26.2,23.9,29.90,NW,307,0.0,3.0,91,0.01,,---,0.01,VWS V14.01,2013-02-03 17:00:00,
2013-02-03 12:02:00,26.2,23.9,29.90,NW,308,0.0,3.0,91,0.01,,---,0.01,VWS V14.01,2013-02-03 17:02:00,
2013-02-03 12:04:00,26.2,23.9,29.89,WNW,298,1.0,2.0,91,0.00,,---,0.01,VWS V14.01,2013-02-03 17:04:00,
2013-02-03 12:05:00,26.2,23.9,29.89,WNW,298,0.0,2.0,91,0.00,,---,0.01,VWS V14.01,2013-02-03 17:05:00,
2013-02-03 12:07:00,26.2,23.9,29.89,WNW,298,0.0,2.0,91,0.00,,---,0.01,VWS V14.01,2013-02-03 17:07:00,
2013-02-03 12:08:00,26.2,23.9,29.89,WNW,298,0.0,2.0,91,0.00,,---,0.01,VWS V14.01,2013-02-03 17:08:00,
2013-02-03 12:10:00,26.3,24.0,29.89,WNW,298,0.0,2.0,91,0.00,,---,0.01,VWS V14.01,2013-02-03 17:10:00,
2013-02-03 12:13:00,26.2,23.7,29.89,WNW,298,0.0,2.0,90,0.00,,---,0.01,VWS V14.01,2013-02-03 17:13:00,
2013-02-03 12:15:00,26.2,23.7,29.89,WNW,298,0.0,2.0,90,0.00,,---,0.01,VWS V14.01,2013-02-03 17:15:00,
2013-02-03 12:18:00,26.1,23.6,29.89,West,273,1.0,2.0,90,0.00,,---,0.01,VWS V14.01,2013-02-03 17:18:00,
2013-02-03 12:20:00,26.1,23.6,29.88,WNW,290,0.0,3.0,90,0.00,,---,0.01,VWS V14.01,2013-02-03 17:20:00,
2013-02-03 12:21:00,26.1,23.6,29.88,WNW,290,0.0,3.0,90,0.00,,---,0.01,VWS V14.01,2013-02-03 17:21:00,
2013-02-03 12:23:00,26.2,23.7,29.88,WNW,290,0.0,3.0,90,0.00,,---,0.01,VWS V14.01,2013-02-03 17:23:00,
2013-02-03 12:25:00,26.2,23.4,29.88,West,280,0.0,3.0,89,0.00,,---,0.01,VWS V14.01,2013-02-03 17:25:00,
2013-02-03 12:26:00,26.1,23.3,29.88,West,280,0.0,3.0,89,0.00,,---,0.01,VWS V14.01,2013-02-03 17:26:00,
2013-02-03 12:28:00,25.9,23.1,29.88,WNW,282,1.0,3.0,89,0.00,,---,0.01,VWS V14.01,2013-02-03 17:28:00,
2013-02-03 12:30:00,26.0,23.5,29.88,WNW,300,0.0,3.0,90,0.00,,---,0.01,VWS V14.01,2013-02-03 17:30:00,
2013-02-03 12:31:00,26.1,23.6,29.88,WNW,301,2.0,3.0,90,0.00,,---,0.01,VWS V14.01,2013-02-03 17:31:00,
2013-02-03 12:33:00,26.1,23.6,29.88,WNW,300,0.0,3.0,90,0.00,,---,0.01,VWS V14.01,2013-02-03 17:33:00,
2013-02-03 12:34:00,26.0,23.5,29.88,WNW,301,0.0,3.0,90,0.00,,---,0.01,VWS V14.01,2013-02-03 17:34:00,
2013-02-03 12:36:00,26.0,23.5,29.87,WNW,291,1.0,3.0,90,0.00,,---,0.01,VWS V14.01,2013-02-03 17:36:00,
2013-02-03 12:38:00,26.0,23.5,29.87,WNW,290,1.0,3.0,90,0.00,,---,0.01,VWS V14.01,2013-02-03 17:38:00,
2013-02-03 12:40:00,26.0,23.5,29.87,WNW,297,0.0,3.0,90,0.00,,---,0.01,VWS V14.01,2013-02-03 17:40:00,
2013-02-03 12:41:00,26.0,23.5,29.87,WNW,302,0.0,3.0,90,0.00,,---,0.01,VWS V14.01,2013-02-03 17:41:00,
2013-02-03 12:42:00,26.0,23.5,29.87,WNW,300,1.0,3.0,90,0.00,,---,0.01,VWS V14.01,2013-02-03 17:42:00,
2013-02-03 12:44:00,26.0,23.5,29.87,WNW,300,0.0,3.0,90,0.00,,---,0.01,VWS V14.01,2013-02-03 17:44:00,
2013-02-03 12:45:00,26.0,23.2,29.87,WNW,302,0.0,3.0,89,0.00,,---,0.01,VWS V14.01,2013-02-03 17:45:00,
2013-02-03 12:46:00,26.0,23.5,29.87,NW,307,1.0,3.0,90,0.00,,---,0.01,VWS V14.01,2013-02-03 17:46:00,
2013-02-03 12:47:00,26.0,23.2,29.87,NW,307,0.0,3.0,89,0.00,,---,0.01,VWS V14.01,2013-02-03 17:47:00,
2013-02-03 12:49:00,26.1,23.6,29.87,NW,306,0.0,3.0,90,0.00,,---,0.01,VWS V14.01,2013-02-03 17:49:00,
2013-02-03 12:51:00,26.1,23.3,29.87,NW,310,0.0,3.0,89,0.00,,---,0.01,VWS V14.01,2013-02-03 17:51:00,
2013-02-03 12:52:00,26.0,23.2,29.87,West,273,0.0,3.0,89,0.00,,---,0.01,VWS V14.01,2013-02-03 17:52:00,
2013-02-03 12:54:00,26.2,23.4,29.87,West,273,0.0,3.0,89,0.00,,---,0.01,VWS V14.01,2013-02-03 17:54:00,
2013-02-03 12:56:00,26.2,23.4,29.87,West,273,0.0,3.0,89,0.00,,---,0.01,VWS V14.01,2013-02-03 17:56:00,
2013-02-03 12:57:00,26.2,23.4,29.87,West,274,0.0,3.0,89,0.00,,---,0.01,VWS V14.01,2013-02-03 17:57:00,
2013-02-03 12:59:00,26.3,23.5,29.86,West,277,0.0,3.0,89,0.00,,---,0.01,VWS V14.01,2013-02-03 17:59:00,
2013-02-03 13:01:00,26.2,23.1,29.86,West,277,0.0,3.0,88,0.00,,---,0.01,VWS V14.01,2013-02-03 18:01:00,
2013-02-03 13:02:00,26.2,23.1,29.86,West,277,0.0,3.0,88,0.00,,---,0.01,VWS V14.01,2013-02-03 18:02:00,
2013-02-03 13:04:00,26.2,23.1,29.86,NW,313,1.0,2.0,88,0.00,,---,0.01,VWS V14.01,2013-02-03 18:04:00,
2013-02-03 13:06:00,26.3,23.2,29.86,NW,313,0.0,2.0,88,0.00,,---,0.01,VWS V14.01,2013-02-03 18:06:00,
2013-02-03 13:07:00,26.3,23.2,29.86,NW,319,0.0,3.0,88,0.00,,---,0.01,VWS V14.01,2013-02-03 18:07:00,
2013-02-03 13:09:00,26.4,23.3,29.86,NW,315,0.0,3.0,88,0.00,,---,0.01,VWS V14.01,2013-02-03 18:09:00,
2013-02-03 13:11:00,26.3,23.2,29.86,NW,315,1.0,3.0,88,0.00,,---,0.01,VWS V14.01,2013-02-03 18:11:00,
2013-02-03 13:12:00,26.3,23.2,29.86,WNW,285,2.0,3.0,88,0.00,,---,0.01,VWS V14.01,2013-02-03 18:12:00,
2013-02-03 13:14:00,26.3,23.2,29.86,NW,304,1.0,3.0,88,0.00,,---,0.01,VWS V14.01,2013-02-03 18:14:00,
2013-02-03 13:17:00,26.3,23.2,29.86,WNW,302,0.0,3.0,88,0.00,,---,0.01,VWS V14.01,2013-02-03 18:17:00,
2013-02-03 13:18:00,26.3,23.2,29.86,WNW,285,4.0,5.0,88,0.00,,---,0.01,VWS V14.01,2013-02-03 18:18:00,
2013-02-03 13:20:00,26.3,23.0,29.86,WNW,284,2.0,5.0,87,0.00,,---,0.01,VWS V14.01,2013-02-03 18:20:00,
2013-02-03 13:23:00,26.2,22.9,29.86,NW,310,2.0,6.0,87,0.00,,---,0.01,VWS V14.01,2013-02-03 18:23:00,
2013-02-03 13:25:00,26.1,22.8,29.86,West,275,0.0,6.0,87,0.00,,---,0.01,VWS V14.01,2013-02-03 18:25:00,
2013-02-03 13:28:00,26.2,22.9,29.86,WSW,238,3.0,8.0,87,0.00,,---,0.01,VWS V14.01,2013-02-03 18:28:00,
2013-02-03 13:30:00,26.2,23.1,29.86,WSW,257,3.0,8.0,88,0.00,,---,0.01,VWS V14.01,2013-02-03 18:30:00,
2013-02-03 13:33:00,26.2,23.1,29.86,NNW,331,3.0,8.0,88,0.00,,---,0.01,VWS V14.01,2013-02-03 18:33:00,
2013-02-03 13:36:00,26.2,23.1,29.86,WSW,248,2.0,4.0,88,0.00,,---,0.01,VWS V14.01,2013-02-03 18:36:00,
2013-02-03 13:38:00,26.1,22.8,29.85,West,273,1.0,6.0,87,0.00,,---,0.01,VWS V14.01,2013-02-03 18:38:00,
2013-02-03 13:39:00,26.0,22.7,29.85,West,273,0.0,6.0,87,0.00,,---,0.01,VWS V14.01,2013-02-03 18:39:00,
2013-02-03 13:41:00,26.2,23.1,29.85,NW,325,0.0,6.0,88,0.00,,---,0.01,VWS V14.01,2013-02-03 18:41:00,
2013-02-03 13:43:00,26.3,23.2,29.85,NW,320,0.0,6.0,88,0.00,,---,0.01,VWS V14.01,2013-02-03 18:43:00,
2013-02-03 13:44:00,26.3,23.2,29.85,NW,320,0.0,6.0,88,0.00,,---,0.01,VWS V14.01,2013-02-03 18:44:00,
2013-02-03 13:46:00,26.4,23.3,29.85,NW,320,0.0,6.0,88,0.00,,---,0.01,VWS V14.01,2013-02-03 18:46:00,
2013-02-03 13:49:00,26.5,23.4,29.85,West,263,3.0,6.0,88,0.00,,---,0.01,VWS V14.01,2013-02-03 18:49:00,
2013-02-03 13:50:00,26.6,23.5,29.85,West,277,0.0,6.0,88,0.00,,---,0.01,VWS V14.01,2013-02-03 18:50:00,
2013-02-03 13:52:00,26.5,23.4,29.85,WNW,288,0.0,6.0,88,0.00,,---,0.01,VWS V14.01,2013-02-03 18:52:00,
2013-02-03 13:54:00,26.5,23.4,29.85,NW,309,0.0,6.0,88,0.00,,---,0.01,VWS V14.01,2013-02-03 18:54:00,
2013-02-03 13:55:00,26.5,23.4,29.85,NW,309,0.0,6.0,88,0.00,,---,0.01,VWS V14.01,2013-02-03 18:55:00,
2013-02-03 13:57:00,26.7,23.9,29.85,WNW,286,0.0,6.0,89,0.00,,---,0.01,VWS V14.01,2013-02-03 18:57:00,
2013-02-03 13:59:00,26.7,23.9,29.84,West,279,2.0,6.0,89,0.00,,---,0.01,VWS V14.01,2013-02-03 18:59:00,
2013-02-03 14:00:00,26.7,23.9,29.84,West,263,1.0,6.0,89,0.00,,---,0.01,VWS V14.01,2013-02-03 19:00:00,
2013-02-03 14:02:00,26.6,23.8,29.84,WNW,291,0.0,6.0,89,0.00,,---,0.01,VWS V14.01,2013-02-03 19:02:00,
2013-02-03 14:05:00,26.5,23.7,29.84,WNW,283,0.0,4.0,89,0.00,,---,0.01,VWS V14.01,2013-02-03 19:05:00,
2013-02-03 14:07:00,26.7,24.2,29.84,WNW,284,0.0,4.0,90,0.00,,---,0.01,VWS V14.01,2013-02-03 19:07:00,
2013-02-03 14:10:00,26.6,24.1,29.84,WNW,286,1.0,4.0,90,0.00,,---,0.01,VWS V14.01,2013-02-03 19:10:00,
2013-02-03 14:12:00,26.6,24.1,29.84,West,275,0.0,4.0,90,0.00,,---,0.01,VWS V14.01,2013-02-03 19:12:00,
2013-02-03 14:15:00,26.9,24.4,29.84,West,259,0.0,4.0,90,0.00,,---,0.01,VWS V14.01,2013-02-03 19:15:00,
2013-02-03 14:16:00,26.9,24.4,29.84,West,259,0.0,4.0,90,0.00,,---,0.01,VWS V14.01,2013-02-03 19:16:00,
2013-02-03 14:17:00,26.9,24.1,29.84,NNW,330,4.0,5.0,89,0.00,,---,0.01,VWS V14.01,2013-02-03 19:17:00,
2013-02-03 14:20:00,26.8,23.7,29.84,WSW,252,3.0,5.0,88,0.00,,---,0.01,VWS V14.01,2013-02-03 19:20:00,
2013-02-03 14:21:00,26.8,23.7,29.84,WNW,296,2.0,5.0,88,0.00,,---,0.01,VWS V14.01,2013-02-03 19:21:00,
2013-02-03 14:23:00,26.8,24.0,29.84,WNW,296,0.0,5.0,89,0.00,,---,0.01,VWS V14.01,2013-02-03 19:23:00,
2013-02-03 14:25:00,26.8,24.0,29.84,WNW,296,0.0,5.0,89,0.00,,---,0.01,VWS V14.01,2013-02-03 19:25:00,
2013-02-03 14:26:00,26.8,24.0,29.84,WNW,297,0.0,5.0,89,0.00,,---,0.01,VWS V14.01,2013-02-03 19:26:00,
2013-02-03 14:28:00,26.8,24.0,29.83,West,265,0.0,5.0,89,0.00,,---,0.01,VWS V14.01,2013-02-03 19:28:00,
2013-02-03 14:30:00,26.8,24.0,29.83,West,264,0.0,5.0,89,0.00,,---,0.01,VWS V14.01,2013-02-03 19:30:00,
2013-02-03 14:31:00,26.8,24.0,29.84,West,273,0.0,5.0,89,0.00,,---,0.01,VWS V14.01,2013-02-03 19:31:00,
2013-02-03 14:33:00,26.7,23.9,29.84,West,280,0.0,5.0,89,0.00,,---,0.01,VWS V14.01,2013-02-03 19:33:00,
2013-02-03 14:35:00,27.0,24.2,29.84,WNW,284,2.0,3.0,89,0.00,,---,0.01,VWS V14.01,2013-02-03 19:35:00,
2013-02-03 14:36:00,26.9,24.1,29.84,SW,233,2.0,3.0,89,0.00,,---,0.01,VWS V14.01,2013-02-03 19:36:00,
2013-02-03 14:38:00,26.9,24.1,29.84,South,173,0.0,3.0,89,0.00,,---,0.01,VWS V14.01,2013-02-03 19:38:00,
2013-02-03 14:40:00,27.0,24.2,29.83,West,280,1.0,3.0,89,0.00,,---,0.01,VWS V14.01,2013-02-03 19:40:00,
2013-02-03 14:41:00,27.0,24.2,29.84,West,281,0.0,3.0,89,0.00,,---,0.01,VWS V14.01,2013-02-03 19:41:00,
2013-02-03 14:43:00,27.0,24.2,29.83,WSW,252,4.0,4.0,89,0.00,,---,0.01,VWS V14.01,2013-02-03 19:43:00,
2013-02-03 14:46:00,27.0,23.9,29.83,WSW,250,0.0,4.0,88,0.00,,---,0.01,VWS V14.01,2013-02-03 19:46:00,
2013-02-03 14:48:00,27.0,23.9,29.84,WSW,242,2.0,4.0,88,0.00,,---,0.01,VWS V14.01,2013-02-03 19:48:00,
2013-02-03 14:51:00,27.0,23.9,29.84,West,261,0.0,4.0,88,0.00,,---,0.01,VWS V14.01,2013-02-03 19:51:00,
2013-02-03 14:52:00,27.0,23.9,29.84,West,261,0.0,4.0,88,0.00,,---,0.01,VWS V14.01,2013-02-03 19:52:00,
2013-02-03 14:53:00,27.1,24.0,29.84,WSW,252,2.0,4.0,88,0.00,,---,0.01,VWS V14.01,2013-02-03 19:53:00,
2013-02-03 14:56:00,27.2,24.1,29.84,West,275,1.0,4.0,88,0.00,,---,0.01,VWS V14.01,2013-02-03 19:56:00,
2013-02-03 14:57:00,27.2,24.1,29.84,West,265,0.0,4.0,88,0.00,,---,0.01,VWS V14.01,2013-02-03 19:57:00,
2013-02-03 14:58:00,27.2,24.1,29.83,West,265,0.0,4.0,88,0.00,,---,0.01,VWS V14.01,2013-02-03 19:58:00,
2013-02-03 15:01:00,27.2,24.1,29.83,West,279,0.0,4.0,88,0.00,,---,0.01,VWS V14.01,2013-02-03 20:01:00,
2013-02-03 15:02:00,27.2,24.1,29.83,West,279,0.0,4.0,88,0.00,,---,0.01,VWS V14.01,2013-02-03 20:02:00,
2013-02-03 15:03:00,27.2,24.1,29.84,West,279,0.0,4.0,88,0.00,,---,0.01,VWS V14.01,2013-02-03 20:03:00,
2013-02-03 15:04:00,27.2,24.1,29.84,West,279,0.0,4.0,88,0.00,,---,0.01,VWS V14.01,2013-02-03 20:04:00,
2013-02-03 15:06:00,27.2,24.1,29.84,West,278,0.0,2.0,88,0.00,,---,0.01,VWS V14.01,2013-02-03 20:06:00,
2013-02-03 15:07:00,27.3,24.2,29.84,NW,317,2.0,2.0,88,0.00,,---,0.01,VWS V14.01,2013-02-03 20:07:00,
2013-02-03 15:08:00,27.2,24.1,29.83,West,275,0.0,3.0,88,0.00,,---,0.01,VWS V14.01,2013-02-03 20:08:00,
2013-02-03 15:09:00,27.2,24.1,29.83,West,275,0.0,3.0,88,0.00,,---,0.01,VWS V14.01,2013-02-03 20:09:00,
2013-02-03 15:11:00,27.2,24.1,29.83,West,277,2.0,3.0,88,0.00,,---,0.01,VWS V14.01,2013-02-03 20:11:00,
2013-02-03 15:12:00,27.2,24.1,29.83,West,277,0.0,3.0,88,0.00,,---,0.01,VWS V14.01,2013-02-03 20:12:00,
2013-02-03 15:14:00,27.2,23.9,29.83,West,275,1.0,3.0,87,0.00,,---,0.01,VWS V14.01,2013-02-03 20:14:00,
2013-02-03 15:16:00,27.2,23.9,29.83,NW,313,0.0,3.0,87,0.00,,---,0.01,VWS V14.01,2013-02-03 20:16:00,
2013-02-03 15:17:00,27.2,23.9,29.83,NW,313,0.0,3.0,87,0.00,,---,0.01,VWS V14.01,2013-02-03 20:17:00,
2013-02-03 15:19:00,27.2,24.1,29.84,WSW,242,0.0,3.0,88,0.00,,---,0.01,VWS V14.01,2013-02-03 20:19:00,
2013-02-03 15:21:00,27.2,24.1,29.83,West,261,1.0,3.0,88,0.00,,---,0.01,VWS V14.01,2013-02-03 20:21:00,
2013-02-03 15:22:00,27.3,24.2,29.83,West,263,0.0,3.0,88,0.00,,---,0.01,VWS V14.01,2013-02-03 20:22:00,
2013-02-03 15:24:00,27.3,24.2,29.84,WSW,257,2.0,3.0,88,0.00,,---,0.01,VWS V14.01,2013-02-03 20:24:00,
2013-02-03 15:27:00,27.3,24.2,29.84,WSW,244,1.0,3.0,88,0.00,,---,0.01,VWS V14.01,2013-02-03 20:27:00,
2013-02-03 15:29:00,27.4,24.0,29.84,West,277,2.0,5.0,87,0.00,,---,0.01,VWS V14.01,2013-02-03 20:29:00,
2013-02-03 15:30:00,27.3,24.0,29.84,West,275,0.0,5.0,87,0.00,,---,0.01,VWS V14.01,2013-02-03 20:30:00,
2013-02-03 15:32:00,27.3,24.0,29.84,WSW,257,0.0,5.0,87,0.00,,---,0.01,VWS V14.01,2013-02-03 20:32:00,
2013-02-03 15:33:00,27.4,24.0,29.84,WSW,240,1.0,5.0,87,0.00,,---,0.01,VWS V14.01,2013-02-03 20:33:00,
2013-02-03 15:34:00,27.4,24.0,29.84,WSW,253,0.0,4.0,87,0.00,,---,0.01,VWS V14.01,2013-02-03 20:34:00,
2013-02-03 15:35:00,27.4,24.0,29.84,WSW,253,0.0,4.0,87,0.00,,---,0.01,VWS V14.01,2013-02-03 20:35:00,
2013-02-03 15:37:00,27.4,24.3,29.84,WSW,258,0.0,4.0,88,0.00,,---,0.01,VWS V14.01,2013-02-03 20:37:00,
2013-02-03 15:38:00,27.4,24.3,29.84,WSW,256,4.0,4.0,88,0.00,,---,0.01,VWS V14.01,2013-02-03 20:38:00,
2013-02-03 15:39:00,27.4,24.3,29.84,WSW,257,4.0,4.0,88,0.00,,---,0.01,VWS V14.01,2013-02-03 20:39:00,
2013-02-03 15:40:00,27.4,24.3,29.84,West,275,1.0,5.0,88,0.00,,---,0.01,VWS V14.01,2013-02-03 20:40:00,
2013-02-03 15:42:00,27.4,24.0,29.84,WNW,292,0.0,5.0,87,0.00,,---,0.01,VWS V14.01,2013-02-03 20:42:00,
2013-02-03 15:43:00,27.4,24.0,29.84,WNW,294,1.0,5.0,87,0.00,,---,0.01,VWS V14.01,2013-02-03 20:43:00,
2013-02-03 15:44:00,27.4,24.3,29.84,West,263,0.0,5.0,88,0.00,,---,0.01,VWS V14.01,2013-02-03 20:44:00,
2013-02-03 15:45:00,27.4,24.3,29.84,West,263,0.0,5.0,88,0.00,,---,0.01,VWS V14.01,2013-02-03 20:45:00,
2013-02-03 15:48:00,27.4,24.0,29.84,WNW,291,0.0,5.0,87,0.00,,---,0.01,VWS V14.01,2013-02-03 20:48:00,
2013-02-03 15:49:00,27.4,24.0,29.84,WNW,291,0.0,5.0,87,0.00,,---,0.01,VWS V14.01,2013-02-03 20:49:00,
2013-02-03 15:50:00,27.4,24.0,29.84,WNW,291,0.0,5.0,87,0.00,,---,0.01,VWS V14.01,2013-02-03 20:50:00,
2013-02-03 15:53:00,27.5,24.4,29.84,NNW,336,0.0,5.0,88,0.00,,---,0.01,VWS V14.01,2013-02-03 20:53:00,
2013-02-03 15:54:00,27.5,24.4,29.84,WNW,292,2.0,5.0,88,0.00,,---,0.01,VWS V14.01,2013-02-03 20:54:00,
2013-02-03 15:55:00,27.6,24.5,29.84,West,268,0.0,5.0,88,0.00,,---,0.01,VWS V14.01,2013-02-03 20:55:00,
2013-02-03 15:59:00,27.8,24.4,29.84,West,272,0.0,5.0,87,0.00,,---,0.01,VWS V14.01,2013-02-03 20:59:00,
2013-02-03 16:00:00,27.8,24.4,29.84,West,272,0.0,5.0,87,0.00,,---,0.01,VWS V14.01,2013-02-03 21:00:00,
2013-02-03 16:04:00,27.8,24.2,29.84,NW,323,0.0,2.0,86,0.00,,---,0.01,VWS V14.01,2013-02-03 21:04:00,
2013-02-03 16:05:00,27.8,24.2,29.84,WSW,255,5.0,6.0,86,0.00,,---,0.01,VWS V14.01,2013-02-03 21:05:00,
2013-02-03 16:06:00,27.9,24.3,29.84,SSW,200,3.0,6.0,86,0.00,,---,0.01,VWS V14.01,2013-02-03 21:06:00,
2013-02-03 16:09:00,27.8,24.2,29.84,North,350,0.0,6.0,86,0.00,,---,0.01,VWS V14.01,2013-02-03 21:09:00,
2013-02-03 16:10:00,27.8,24.2,29.84,NW,325,1.0,6.0,86,0.00,,---,0.01,VWS V14.01,2013-02-03 21:10:00,
2013-02-03 16:11:00,27.8,24.2,29.84,NNW,338,0.0,6.0,86,0.00,,---,0.01,VWS V14.01,2013-02-03 21:11:00,
2013-02-03 16:14:00,27.8,24.2,29.84,SW,224,0.0,6.0,86,0.00,,---,0.01,VWS V14.01,2013-02-03 21:14:00,
2013-02-03 16:15:00,27.8,24.2,29.84,SSW,200,2.0,6.0,86,0.00,,---,0.01,VWS V14.01,2013-02-03 21:15:00,
2013-02-03 16:16:00,27.8,24.2,29.84,SW,233,3.0,6.0,86,0.00,,---,0.01,VWS V14.01,2013-02-03 21:16:00,
2013-02-03 16:20:00,27.8,24.2,29.83,SW,230,0.0,6.0,86,0.00,,---,0.01,VWS V14.01,2013-02-03 21:20:00,
2013-02-03 16:21:00,27.7,24.1,29.83,SW,231,0.0,6.0,86,0.00,,---,0.01,VWS V14.01,2013-02-03 21:21:00,
2013-02-03 16:25:00,27.8,24.4,29.83,NW,323,0.0,6.0,87,0.00,,---,0.01,VWS V14.01,2013-02-03 21:25:00,
2013-02-03 16:26:00,27.8,24.4,29.83,NW,324,0.0,6.0,87,0.00,,---,0.01,VWS V14.01,2013-02-03 21:26:00,
2013-02-03 16:27:00,27.8,24.4,29.83,SW,219,2.0,6.0,87,0.00,,---,0.01,VWS V14.01,2013-02-03 21:27:00,
2013-02-03 16:30:00,27.8,24.4,29.83,SW,219,0.0,6.0,87,0.00,,---,0.01,VWS V14.01,2013-02-03 21:30:00,
2013-02-03 16:31:00,27.8,24.4,29.83,SW,219,0.0,6.0,87,0.00,,---,0.01,VWS V14.01,2013-02-03 21:31:00,
2013-02-03 16:32:00,27.8,24.4,29.83,SW,218,0.0,6.0,87,0.00,,---,0.01,VWS V14.01,2013-02-03 21:32:00,
2013-02-03 16:35:00,27.9,24.5,29.83,South,186,0.0,0.0,87,0.00,,---,0.01,VWS V14.01,2013-02-03 21:35:00,
2013-02-03 16:36:00,27.8,24.4,29.83,WSW,240,0.0,1.0,87,0.00,,---,0.01,VWS V14.01,2013-02-03 21:36:00,
2013-02-03 16:37:00,27.8,24.4,29.83,WSW,255,1.0,1.0,87,0.00,,---,0.01,VWS V14.01,2013-02-03 21:37:00,
2013-02-03 16:40:00,27.8,24.4,29.83,SW,234,0.0,2.0,87,0.00,,---,0.01,VWS V14.01,2013-02-03 21:40:00,
2013-02-03 16:41:00,27.8,24.4,29.83,SW,234,0.0,2.0,87,0.00,,---,0.01,VWS V14.01,2013-02-03 21:41:00,
2013-02-03 16:42:00,27.8,24.4,29.83,SW,234,0.0,2.0,87,0.00,,---,0.01,VWS V14.01,2013-02-03 21:42:00,
2013-02-03 16:43:00,27.8,24.4,29.83,SW,234,0.0,2.0,87,0.00,,---,0.01,VWS V14.01,2013-02-03 21:43:00,
2013-02-03 16:45:00,27.8,24.4,29.83,West,265,3.0,3.0,87,0.00,,---,0.01,VWS V14.01,2013-02-03 21:45:00,
2013-02-03 16:47:00,27.8,24.4,29.83,West,265,0.0,3.0,87,0.00,,---,0.01,VWS V14.01,2013-02-03 21:47:00,
2013-02-03 16:48:00,27.8,24.4,29.83,WNW,293,0.0,3.0,87,0.00,,---,0.01,VWS V14.01,2013-02-03 21:48:00,
2013-02-03 16:51:00,27.7,24.3,29.83,WSW,254,2.0,3.0,87,0.00,,---,0.01,VWS V14.01,2013-02-03 21:51:00,
2013-02-03 16:52:00,27.7,24.3,29.83,WSW,254,1.0,3.0,87,0.00,,---,0.01,VWS V14.01,2013-02-03 21:52:00,
2013-02-03 16:53:00,27.7,24.3,29.83,WSW,253,0.0,3.0,87,0.00,,---,0.01,VWS V14.01,2013-02-03 21:53:00,
2013-02-03 16:56:00,27.6,24.2,29.83,West,266,0.0,3.0,87,0.00,,---,0.01,VWS V14.01,2013-02-03 21:56:00,
2013-02-03 16:57:00,27.6,24.2,29.83,West,266,0.0,3.0,87,0.00,,---,0.01,VWS V14.01,2013-02-03 21:57:00,
2013-02-03 16:58:00,27.6,24.2,29.83,West,265,0.0,3.0,87,0.00,,---,0.01,VWS V14.01,2013-02-03 21:58:00,
2013-02-03 17:01:00,27.6,24.2,29.83,WNW,300,1.0,3.0,87,0.00,,---,0.01,VWS V14.01,2013-02-03 22:01:00,
2013-02-03 17:02:00,27.6,24.2,29.83,WNW,300,0.0,3.0,87,0.00,,---,0.01,VWS V14.01,2013-02-03 22:02:00,
2013-02-03 17:03:00,27.6,24.2,29.83,NNW,335,0.0,3.0,87,0.00,,---,0.01,VWS V14.01,2013-02-03 22:03:00,
2013-02-03 17:06:00,27.5,24.1,29.83,West,272,1.0,2.0,87,0.00,,---,0.01,VWS V14.01,2013-02-03 22:06:00,
2013-02-03 17:07:00,27.4,24.0,29.83,West,269,0.0,5.0,87,0.00,,---,0.01,VWS V14.01,2013-02-03 22:07:00,
2013-02-03 17:08:00,27.4,24.0,29.83,WSW,250,3.0,5.0,87,0.00,,---,0.01,VWS V14.01,2013-02-03 22:08:00,
2013-02-03 17:11:00,27.3,24.0,29.84,West,272,0.0,6.0,87,0.00,,---,0.01,VWS V14.01,2013-02-03 22:11:00,
2013-02-03 17:12:00,27.3,24.0,29.83,WNW,303,3.0,6.0,87,0.00,,---,0.01,VWS V14.01,2013-02-03 22:12:00,
2013-02-03 17:13:00,27.3,24.0,29.83,WNW,302,0.0,6.0,87,0.00,,---,0.01,VWS V14.01,2013-02-03 22:13:00,
2013-02-03 17:14:00,27.2,24.1,29.83,WNW,302,0.0,6.0,88,0.00,,---,0.01,VWS V14.01,2013-02-03 22:14:00,
2013-02-03 17:17:00,27.2,24.1,29.83,WNW,302,0.0,6.0,88,0.00,,---,0.01,VWS V14.01,2013-02-03 22:17:00,
2013-02-03 17:19:00,27.2,24.1,29.83,WNW,302,0.0,6.0,88,0.00,,---,0.01,VWS V14.01,2013-02-03 22:19:00,
2013-02-03 17:20:00,27.2,24.1,29.83,WNW,302,0.0,6.0,88,0.00,,---,0.01,VWS V14.01,2013-02-03 22:20:00,
2013-02-03 17:22:00,27.2,24.1,29.83,SW,215,1.0,6.0,88,0.00,,---,0.01,VWS V14.01,2013-02-03 22:22:00,
2013-02-03 17:23:00,27.1,24.0,29.83,SW,216,0.0,6.0,88,0.00,,---,0.01,VWS V14.01,2013-02-03 22:23:00,
2013-02-03 17:24:00,27.2,24.1,29.84,WSW,246,0.0,6.0,88,0.00,,---,0.01,VWS V14.01,2013-02-03 22:24:00,
2013-02-03 17:25:00,27.1,24.0,29.84,West,275,0.0,6.0,88,0.00,,---,0.01,VWS V14.01,2013-02-03 22:25:00,
2013-02-03 17:27:00,27.1,24.0,29.83,WSW,252,6.0,6.0,88,0.00,,---,0.01,VWS V14.01,2013-02-03 22:27:00,
2013-02-03 17:28:00,27.1,24.0,29.84,West,280,0.0,6.0,88,0.00,,---,0.01,VWS V14.01,2013-02-03 22:28:00,
2013-02-03 17:29:00,27.1,24.0,29.84,West,278,0.0,6.0,88,0.00,,---,0.01,VWS V14.01,2013-02-03 22:29:00,
2013-02-03 17:30:00,27.0,23.9,29.84,West,265,0.0,6.0,88,0.00,,---,0.01,VWS V14.01,2013-02-03 22:30:00,
2013-02-03 17:32:00,27.0,23.9,29.83,WSW,248,2.0,6.0,88,0.00,,---,0.01,VWS V14.01,2013-02-03 22:32:00,
2013-02-03 17:33:00,27.0,23.9,29.84,WSW,250,3.0,6.0,88,0.00,,---,0.01,VWS V14.01,2013-02-03 22:33:00,
2013-02-03 17:35:00,27.0,24.2,29.84,West,259,2.0,3.0,89,0.00,,---,0.01,VWS V14.01,2013-02-03 22:35:00,
2013-02-03 17:37:00,26.9,24.1,29.84,WSW,254,0.0,5.0,89,0.00,,---,0.01,VWS V14.01,2013-02-03 22:37:00,
2013-02-03 17:38:00,26.9,24.1,29.84,WSW,254,0.0,5.0,89,0.00,,---,0.01,VWS V14.01,2013-02-03 22:38:00,
2013-02-03 17:40:00,26.9,24.1,29.84,North,355,0.0,5.0,89,0.00,,---,0.01,VWS V14.01,2013-02-03 22:40:00,
2013-02-03 17:41:00,26.9,24.1,29.84,North,355,0.0,5.0,89,0.00,,---,0.01,VWS V14.01,2013-02-03 22:41:00,
2013-02-03 17:42:00,26.9,24.1,29.84,West,271,3.0,5.0,89,0.00,,---,0.01,VWS V14.01,2013-02-03 22:42:00,
2013-02-03 17:43:00,26.9,24.1,29.84,SW,236,2.0,5.0,89,0.00,,---,0.01,VWS V14.01,2013-02-03 22:43:00,
2013-02-03 17:45:00,26.8,24.0,29.84,WNW,298,2.0,5.0,89,0.00,,---,0.01,VWS V14.01,2013-02-03 22:45:00,
2013-02-03 17:46:00,26.8,24.3,29.84,WNW,295,0.0,5.0,90,0.00,,---,0.01,VWS V14.01,2013-02-03 22:46:00,
2013-02-03 17:47:00,26.8,24.0,29.84,West,261,3.0,5.0,89,0.00,,---,0.01,VWS V14.01,2013-02-03 22:47:00,
2013-02-03 17:48:00,26.8,24.3,29.84,West,259,0.0,5.0,90,0.00,,---,0.01,VWS V14.01,2013-02-03 22:48:00,
2013-02-03 17:51:00,26.8,24.3,29.84,NW,306,0.0,5.0,90,0.00,,---,0.01,VWS V14.01,2013-02-03 22:51:00,
2013-02-03 17:52:00,26.8,24.3,29.84,WSW,253,2.0,5.0,90,0.00,,---,0.01,VWS V14.01,2013-02-03 22:52:00,
2013-02-03 17:53:00,26.7,24.2,29.84,WSW,254,0.0,5.0,90,0.00,,---,0.01,VWS V14.01,2013-02-03 22:53:00,
2013-02-03 17:56:00,26.7,24.2,29.84,West,259,0.0,5.0,90,0.00,,---,0.01,VWS V14.01,2013-02-03 22:56:00,
2013-02-03 17:58:00,26.7,24.4,29.84,West,259,0.0,5.0,91,0.00,,---,0.01,VWS V14.01,2013-02-03 22:58:00,
2013-02-03 18:01:00,26.6,24.3,29.84,West,272,0.0,6.0,91,0.00,,---,0.01,VWS V14.01,2013-02-03 23:01:00,
2013-02-03 18:03:00,26.6,24.3,29.84,West,276,0.0,6.0,91,0.00,,---,0.01,VWS V14.01,2013-02-03 23:03:00,
2013-02-03 18:06:00,26.6,24.3,29.84,WSW,249,1.0,4.0,91,0.00,,---,0.01,VWS V14.01,2013-02-03 23:06:00,
2013-02-03 18:08:00,26.5,24.5,29.84,WSW,254,0.0,4.0,92,0.00,,---,0.01,VWS V14.01,2013-02-03 23:08:00,
2013-02-03 18:09:00,26.5,24.5,29.84,WNW,299,0.0,4.0,92,0.00,,---,0.01,VWS V14.01,2013-02-03 23:09:00,
2013-02-03 18:11:00,26.5,24.5,29.84,WNW,290,1.0,4.0,92,0.00,,---,0.01,VWS V14.01,2013-02-03 23:11:00,
2013-02-03 18:14:00,26.5,24.5,29.84,WNW,288,0.0,4.0,92,0.00,,---,0.01,VWS V14.01,2013-02-03 23:14:00,
2013-02-03 18:16:00,26.5,24.5,29.84,West,263,0.0,4.0,92,0.00,,---,0.01,VWS V14.01,2013-02-03 23:16:00,
2013-02-03 18:17:00,26.4,24.4,29.84,West,265,0.0,4.0,92,0.00,,---,0.01,VWS V14.01,2013-02-03 23:17:00,
2013-02-03 18:19:00,26.4,24.4,29.85,West,263,0.0,4.0,92,0.00,,---,0.01,VWS V14.01,2013-02-03 23:19:00,
2013-02-03 18:22:00,26.4,24.4,29.85,West,259,0.0,5.0,92,0.00,,---,0.01,VWS V14.01,2013-02-03 23:22:00,
2013-02-03 18:24:00,26.3,24.3,29.85,West,264,0.0,5.0,92,0.00,,---,0.01,VWS V14.01,2013-02-03 23:24:00,
2013-02-03 18:27:00,26.3,24.6,29.85,West,260,1.0,6.0,93,0.00,,---,0.01,VWS V14.01,2013-02-03 23:27:00,
2013-02-03 18:28:00,26.3,24.6,29.85,West,268,0.0,6.0,93,0.00,,---,0.01,VWS V14.01,2013-02-03 23:28:00,
2013-02-03 18:29:00,26.3,24.6,29.85,West,274,0.0,6.0,93,0.00,,---,0.01,VWS V14.01,2013-02-03 23:29:00,
2013-02-03 18:32:00,26.3,24.6,29.85,WSW,242,0.0,6.0,93,0.00,,---,0.01,VWS V14.01,2013-02-03 23:32:00,
2013-02-03 18:33:00,26.3,24.6,29.85,WSW,245,0.0,6.0,93,0.00,,---,0.01,VWS V14.01,2013-02-03 23:33:00,
2013-02-03 18:34:00,26.3,24.6,29.85,West,265,6.0,6.0,93,0.00,,---,0.01,VWS V14.01,2013-02-03 23:34:00,
2013-02-03 18:35:00,26.3,24.6,29.85,West,279,4.0,6.0,93,0.00,,---,0.01,VWS V14.01,2013-02-03 23:35:00,
2013-02-03 18:38:00,26.2,24.5,29.85,NW,310,11.0,12.0,93,0.00,,---,0.01,VWS V14.01,2013-02-03 23:38:00,
2013-02-03 18:40:00,26.2,24.5,29.85,West,274,0.0,12.0,93,0.00,,---,0.01,VWS V14.01,2013-02-03 23:40:00,
2013-02-03 18:41:00,26.2,24.5,29.85,West,273,0.0,12.0,93,0.00,,---,0.01,VWS V14.01,2013-02-03 23:41:00,
2013-02-03 18:43:00,26.1,24.4,29.85,WNW,289,3.0,12.0,93,0.00,,---,0.01,VWS V14.01,2013-02-03 23:43:00,
2013-02-03 18:44:00,26.1,24.4,29.85,SSW,213,4.0,12.0,93,0.00,,---,0.01,VWS V14.01,2013-02-03 23:44:00,
2013-02-03 18:45:00,26.1,24.4,29.85,WSW,256,0.0,12.0,93,0.00,,---,0.01,VWS V14.01,2013-02-03 23:45:00,
2013-02-03 18:46:00,26.1,24.4,29.85,WSW,254,1.0,12.0,93,0.00,,---,0.01,VWS V14.01,2013-02-03 23:46:00,
2013-02-03 18:48:00,26.1,24.6,29.85,West,259,4.0,12.0,94,0.00,,---,0.01,VWS V14.01,2013-02-03 23:48:00,
2013-02-03 18:49:00,26.0,24.5,29.85,West,259,4.0,12.0,94,0.00,,---,0.01,VWS V14.01,2013-02-03 23:49:00,
2013-02-03 18:50:00,26.0,24.3,29.85,WSW,253,0.0,12.0,93,0.00,,---,0.01,VWS V14.01,2013-02-03 23:50:00,
2013-02-03 18:51:00,26.0,24.3,29.85,SW,223,0.0,12.0,93,0.00,,---,0.01,VWS V14.01,2013-02-03 23:51:00,
2013-02-03 18:53:00,26.0,24.3,29.85,WNW,286,4.0,12.0,93,0.00,,---,0.01,VWS V14.01,2013-02-03 23:53:00,
2013-02-03 18:54:00,26.0,24.3,29.85,WNW,286,2.0,12.0,93,0.00,,---,0.01,VWS V14.01,2013-02-03 23:54:00,
2013-02-03 18:55:00,25.9,24.2,29.85,WNW,291,0.0,12.0,93,0.00,,---,0.01,VWS V14.01,2013-02-03 23:55:00,
2013-02-03 18:57:00,25.9,24.4,29.85,NW,311,0.0,12.0,94,0.00,,---,0.01,VWS V14.01,2013-02-03 23:57:00,
2013-02-03 18:59:00,25.9,24.4,29.85,WSW,248,3.0,12.0,94,0.00,,---,0.01,VWS V14.01,2013-02-03 23:59:00,
2013-02-03 19:01:00,25.9,24.4,29.86,West,273,3.0,12.0,94,0.00,,---,0.01,VWS V14.01,2013-02-04 00:01:00,
2013-02-03 19:02:00,25.9,24.4,29.86,West,273,2.0,12.0,94,0.00,,---,0.01,VWS V14.01,2013-02-04 00:02:00,
2013-02-03 19:04:00,25.8,24.3,29.86,West,259,2.0,3.0,94,0.00,,---,0.01,VWS V14.01,2013-02-04 00:04:00,
2013-02-03 19:05:00,25.8,24.3,29.85,WNW,284,2.0,3.0,94,0.00,,---,0.01,VWS V14.01,2013-02-04 00:05:00,
2013-02-03 19:06:00,25.8,24.3,29.85,WNW,287,0.0,6.0,94,0.00,,---,0.01,VWS V14.01,2013-02-04 00:06:00,
2013-02-03 19:07:00,25.8,24.3,29.86,WNW,291,0.0,6.0,94,0.00,,---,0.01,VWS V14.01,2013-02-04 00:07:00,
2013-02-03 19:10:00,25.8,24.3,29.86,NW,312,1.0,6.0,94,0.00,,---,0.01,VWS V14.01,2013-02-04 00:10:00,
2013-02-03 19:11:00,25.8,24.3,29.86,WNW,296,2.0,6.0,94,0.00,,---,0.01,VWS V14.01,2013-02-04 00:11:00,
2013-02-03 19:12:00,25.8,24.3,29.86,WSW,256,2.0,7.0,94,0.00,,---,0.01,VWS V14.01,2013-02-04 00:12:00,
2013-02-03 19:15:00,25.9,24.4,29.86,WNW,293,4.0,7.0,94,0.00,,---,0.01,VWS V14.01,2013-02-04 00:15:00,
2013-02-03 19:16:00,25.9,24.4,29.86,WSW,246,5.0,7.0,94,0.00,,---,0.01,VWS V14.01,2013-02-04 00:16:00,
2013-02-03 19:17:00,25.9,24.4,29.86,West,277,1.0,7.0,94,0.00,,---,0.01,VWS V14.01,2013-02-04 00:17:00,
2013-02-03 19:20:00,25.9,24.4,29.86,West,279,3.0,7.0,94,0.00,,---,0.01,VWS V14.01,2013-02-04 00:20:00,
2013-02-03 19:21:00,25.9,24.4,29.86,West,267,0.0,7.0,94,0.00,,---,0.01,VWS V14.01,2013-02-04 00:21:00,
2013-02-03 19:22:00,25.9,24.4,29.86,West,265,2.0,7.0,94,0.00,,---,0.01,VWS V14.01,2013-02-04 00:22:00,
2013-02-03 19:25:00,26.0,24.5,29.86,SW,226,3.0,9.0,94,0.00,,---,0.01,VWS V14.01,2013-02-04 00:25:00,
2013-02-03 19:27:00,26.0,24.5,29.86,NW,323,3.0,9.0,94,0.00,,---,0.01,VWS V14.01,2013-02-04 00:27:00,
2013-02-03 19:28:00,26.0,24.5,29.86,West,276,5.0,10.0,94,0.00,,---,0.01,VWS V14.01,2013-02-04 00:28:00,
2013-02-03 19:30:00,26.0,24.5,29.86,WNW,296,3.0,10.0,94,0.00,,---,0.01,VWS V14.01,2013-02-04 00:30:00,
2013-02-03 19:32:00,25.9,24.4,29.86,West,262,1.0,10.0,94,0.00,,---,0.01,VWS V14.01,2013-02-04 00:32:00,
2013-02-03 19:33:00,25.9,24.4,29.87,West,267,4.0,10.0,94,0.00,,---,0.01,VWS V14.01,2013-02-04 00:33:00,
2013-02-03 19:35:00,25.8,24.3,29.87,WNW,284,3.0,6.0,94,0.00,,---,0.01,VWS V14.01,2013-02-04 00:35:00,
2013-02-03 19:37:00,25.8,24.3,29.87,West,274,3.0,6.0,94,0.00,,---,0.01,VWS V14.01,2013-02-04 00:37:00,
2013-02-03 19:39:00,25.8,24.3,29.87,WNW,292,0.0,9.0,94,0.00,,---,0.01,VWS V14.01,2013-02-04 00:39:00,
2013-02-03 19:40:00,25.8,24.3,29.87,WNW,292,1.0,9.0,94,0.00,,---,0.01,VWS V14.01,2013-02-04 00:40:00,
2013-02-03 19:42:00,25.7,24.2,29.87,WNW,283,1.0,9.0,94,0.00,,---,0.01,VWS V14.01,2013-02-04 00:42:00,
2013-02-03 19:44:00,25.7,24.2,29.87,WNW,293,4.0,9.0,94,0.00,,---,0.01,VWS V14.01,2013-02-04 00:44:00,
2013-02-03 19:46:00,25.7,24.2,29.87,WNW,292,1.0,9.0,94,0.00,,---,0.01,VWS V14.01,2013-02-04 00:46:00,
2013-02-03 19:48:00,25.7,24.2,29.87,NW,306,10.0,10.0,94,0.00,,---,0.01,VWS V14.01,2013-02-04 00:48:00,
2013-02-03 19:49:00,25.7,24.5,29.87,NW,310,4.0,10.0,95,0.00,,---,0.01,VWS V14.01,2013-02-04 00:49:00,
2013-02-03 19:51:00,25.7,24.5,29.87,WNW,288,4.0,10.0,95,0.00,,---,0.01,VWS V14.01,2013-02-04 00:51:00,
2013-02-03 19:53:00,25.7,24.5,29.87,West,265,4.0,10.0,95,0.00,,---,0.01,VWS V14.01,2013-02-04 00:53:00,
2013-02-03 19:54:00,25.7,24.5,29.87,NW,306,3.0,10.0,95,0.00,,---,0.01,VWS V14.01,2013-02-04 00:54:00,
2013-02-03 19:56:00,25.7,24.5,29.88,North,355,14.0,14.0,95,0.00,,---,0.01,VWS V14.01,2013-02-04 00:56:00,
2013-02-03 19:58:00,25.6,24.1,29.87,NW,326,7.0,14.0,94,0.00,,---,0.01,VWS V14.01,2013-02-04 00:58:00,
2013-02-03 19:59:00,25.5,24.0,29.88,NW,308,4.0,14.0,94,0.00,,---,0.01,VWS V14.01,2013-02-04 00:59:00,
2013-02-03 20:01:00,25.3,23.8,29.88,North,360,4.0,14.0,94,0.00,,---,0.01,VWS V14.01,2013-02-04 01:01:00,
2013-02-03 20:03:00,25.3,23.8,29.88,WNW,302,4.0,14.0,94,0.00,,---,0.01,VWS V14.01,2013-02-04 01:03:00,
2013-02-03 20:05:00,25.2,23.7,29.88,NW,311,4.0,5.0,94,0.00,,---,0.01,VWS V14.01,2013-02-04 01:05:00,
2013-02-03 20:07:00,25.1,23.6,29.87,NNW,342,5.0,15.0,94,0.01,,---,0.02,VWS V14.01,2013-02-04 01:07:00,
2013-02-03 20:08:00,25.0,23.5,29.88,North,360,11.0,15.0,94,0.01,,---,0.02,VWS V14.01,2013-02-04 01:08:00,
2013-02-03 20:09:00,24.9,23.4,29.88,NNW,347,2.0,15.0,94,0.01,,---,0.02,VWS V14.01,2013-02-04 01:09:00,
2013-02-03 20:10:00,24.8,23.3,29.88,NNW,327,1.0,15.0,94,0.01,,---,0.02,VWS V14.01,2013-02-04 01:10:00,
2013-02-03 20:12:00,24.8,23.3,29.88,WNW,290,4.0,15.0,94,0.01,,---,0.02,VWS V14.01,2013-02-04 01:12:00,
2013-02-03 20:13:00,24.8,23.3,29.88,WNW,295,3.0,15.0,94,0.01,,---,0.02,VWS V14.01,2013-02-04 01:13:00,
2013-02-03 20:14:00,24.7,23.2,29.88,West,269,5.0,15.0,94,0.01,,---,0.02,VWS V14.01,2013-02-04 01:14:00,
2013-02-03 20:16:00,24.7,23.2,29.88,NW,309,5.0,15.0,94,0.01,,---,0.02,VWS V14.01,2013-02-04 01:16:00,
2013-02-03 20:17:00,24.7,23.2,29.88,North,360,4.0,15.0,94,0.01,,---,0.02,VWS V14.01,2013-02-04 01:17:00,
2013-02-03 20:18:00,24.7,23.2,29.88,NW,319,4.0,18.0,94,0.01,,---,0.02,VWS V14.01,2013-02-04 01:18:00,
2013-02-03 20:19:00,24.6,23.1,29.88,West,280,3.0,18.0,94,0.01,,---,0.02,VWS V14.01,2013-02-04 01:19:00,
2013-02-03 20:21:00,24.6,23.1,29.88,West,275,3.0,18.0,94,0.01,,---,0.02,VWS V14.01,2013-02-04 01:21:00,
2013-02-03 20:23:00,24.6,23.1,29.89,NW,306,7.0,18.0,94,0.01,,---,0.02,VWS V14.01,2013-02-04 01:23:00,
2013-02-03 20:25:00,24.5,23.0,29.89,NW,312,4.0,18.0,94,0.01,,---,0.02,VWS V14.01,2013-02-04 01:25:00,
2013-02-03 20:26:00,24.5,23.0,29.89,WNW,294,3.0,18.0,94,0.01,,---,0.02,VWS V14.01,2013-02-04 01:26:00,
2013-02-03 20:28:00,24.4,22.9,29.89,WNW,300,4.0,18.0,94,0.01,,---,0.02,VWS V14.01,2013-02-04 01:28:00,
2013-02-03 20:30:00,24.4,22.9,29.89,NW,304,1.0,18.0,94,0.01,,---,0.02,VWS V14.01,2013-02-04 01:30:00,
2013-02-03 20:31:00,24.4,22.9,29.90,WSW,257,6.0,18.0,94,0.01,,---,0.02,VWS V14.01,2013-02-04 01:31:00,
2013-02-03 20:33:00,24.3,22.6,29.89,WNW,299,3.0,18.0,93,0.01,,---,0.02,VWS V14.01,2013-02-04 01:33:00,
2013-02-03 20:36:00,24.2,22.5,29.90,WSW,246,8.0,9.0,93,0.01,,---,0.02,VWS V14.01,2013-02-04 01:36:00,
2013-02-03 20:38:00,24.2,22.5,29.89,NW,306,9.0,11.0,93,0.01,,---,0.02,VWS V14.01,2013-02-04 01:38:00,
2013-02-03 20:39:00,24.1,22.1,29.90,WSW,244,15.0,15.0,92,0.01,,---,0.02,VWS V14.01,2013-02-04 01:39:00,
2013-02-03 20:41:00,24.0,22.0,29.89,WNW,292,6.0,16.0,92,0.01,,---,0.02,VWS V14.01,2013-02-04 01:41:00,
2013-02-03 20:44:00,23.9,21.9,29.90,WNW,297,2.0,16.0,92,0.01,,---,0.02,VWS V14.01,2013-02-04 01:44:00,
2013-02-03 20:45:00,23.9,21.7,29.89,North,349,5.0,16.0,91,0.01,,---,0.02,VWS V14.01,2013-02-04 01:45:00,
2013-02-03 20:46:00,23.9,21.7,29.89,NW,317,4.0,16.0,91,0.01,,---,0.02,VWS V14.01,2013-02-04 01:46:00,
2013-02-03 20:49:00,23.8,21.3,29.90,NW,321,3.0,16.0,90,0.01,,---,0.02,VWS V14.01,2013-02-04 01:49:00,
2013-02-03 20:50:00,23.8,21.3,29.90,WNW,296,5.0,16.0,90,0.01,,---,0.02,VWS V14.01,2013-02-04 01:50:00,
2013-02-03 20:51:00,23.8,21.3,29.89,WNW,300,14.0,16.0,90,0.01,,---,0.02,VWS V14.01,2013-02-04 01:51:00,
2013-02-03 20:52:00,23.7,21.2,29.90,NNW,327,5.0,16.0,90,0.01,,---,0.02,VWS V14.01,2013-02-04 01:52:00,
2013-02-03 20:54:00,23.7,20.9,29.90,WNW,291,7.0,16.0,89,0.01,,---,0.02,VWS V14.01,2013-02-04 01:54:00,
2013-02-03 20:55:00,23.7,20.9,29.90,NW,311,5.0,16.0,89,0.01,,---,0.02,VWS V14.01,2013-02-04 01:55:00,
2013-02-03 20:57:00,23.6,20.6,29.90,West,281,7.0,16.0,88,0.01,,---,0.02,VWS V14.01,2013-02-04 01:57:00,
2013-02-03 20:58:00,23.6,20.6,29.90,WNW,300,6.0,16.0,88,0.01,,---,0.02,VWS V14.01,2013-02-04 01:58:00,
2013-02-03 20:59:00,23.6,20.3,29.90,NW,308,0.0,16.0,87,0.01,,---,0.02,VWS V14.01,2013-02-04 01:59:00,
2013-02-03 21:00:00,23.6,20.3,29.90,WNW,296,2.0,16.0,87,0.01,,---,0.02,VWS V14.01,2013-02-04 02:00:00,
2013-02-03 21:02:00,23.6,20.3,29.91,North,349,5.0,16.0,87,0.01,,---,0.02,VWS V14.01,2013-02-04 02:02:00,
2013-02-03 21:03:00,23.6,20.3,29.91,WNW,299,6.0,16.0,87,0.01,,---,0.02,VWS V14.01,2013-02-04 02:03:00,
2013-02-03 21:04:00,23.6,20.0,29.90,NW,317,6.0,14.0,86,0.01,,---,0.02,VWS V14.01,2013-02-04 02:04:00,
2013-02-03 21:05:00,23.5,19.9,29.90,WNW,296,4.0,14.0,86,0.01,,---,0.02,VWS V14.01,2013-02-04 02:05:00,
2013-02-03 21:07:00,23.5,19.7,29.90,WSW,257,6.0,14.0,85,0.01,,---,0.02,VWS V14.01,2013-02-04 02:07:00,
2013-02-03 21:08:00,23.5,19.7,29.90,West,275,4.0,14.0,85,0.01,,---,0.02,VWS V14.01,2013-02-04 02:08:00,
2013-02-03 21:10:00,23.5,19.4,29.90,West,279,4.0,14.0,84,0.01,,---,0.02,VWS V14.01,2013-02-04 02:10:00,
2013-02-03 21:13:00,23.5,19.1,29.90,NNW,329,11.0,24.0,83,0.01,,---,0.02,VWS V14.01,2013-02-04 02:13:00,
2013-02-03 21:15:00,23.5,19.1,29.90,West,271,4.0,24.0,83,0.01,,---,0.02,VWS V14.01,2013-02-04 02:15:00,
2013-02-03 21:16:00,23.5,19.1,29.90,NW,311,8.0,24.0,83,0.01,,---,0.02,VWS V14.01,2013-02-04 02:16:00,
2013-02-03 21:18:00,23.5,18.8,29.90,NNW,329,5.0,24.0,82,0.01,,---,0.02,VWS V14.01,2013-02-04 02:18:00,
2013-02-03 21:20:00,23.5,18.8,29.91,NW,308,7.0,24.0,82,0.01,,---,0.02,VWS V14.01,2013-02-04 02:20:00,
2013-02-03 21:21:00,23.4,18.7,29.91,WNW,296,5.0,24.0,82,0.01,,---,0.02,VWS V14.01,2013-02-04 02:21:00,
2013-02-03 21:23:00,23.4,18.7,29.91,NW,317,5.0,24.0,82,0.01,,---,0.02,VWS V14.01,2013-02-04 02:23:00,
2013-02-03 21:24:00,23.4,18.7,29.91,NW,321,0.0,24.0,82,0.01,,---,0.02,VWS V14.01,2013-02-04 02:24:00,
2013-02-03 21:26:00,23.4,18.4,29.91,NW,309,5.0,24.0,81,0.01,,---,0.02,VWS V14.01,2013-02-04 02:26:00,
2013-02-03 21:28:00,23.3,18.3,29.92,WNW,294,6.0,24.0,81,0.01,,---,0.02,VWS V14.01,2013-02-04 02:28:00,
2013-02-03 21:29:00,23.3,18.3,29.91,NNW,340,5.0,24.0,81,0.01,,---,0.02,VWS V14.01,2013-02-04 02:29:00,
2013-02-03 21:31:00,23.2,18.0,29.91,WNW,288,3.0,24.0,80,0.01,,---,0.02,VWS V14.01,2013-02-04 02:31:00,
2013-02-03 21:33:00,23.2,18.0,29.91,WSW,252,2.0,24.0,80,0.01,,---,0.02,VWS V14.01,2013-02-04 02:33:00,
2013-02-03 21:34:00,23.1,17.9,29.92,West,277,3.0,5.0,80,0.00,,---,0.02,VWS V14.01,2013-02-04 02:34:00,
2013-02-03 21:36:00,23.1,17.9,29.91,NW,311,6.0,13.0,80,0.00,,---,0.02,VWS V14.01,2013-02-04 02:36:00,
2013-02-03 21:38:00,23.1,17.9,29.91,WNW,303,3.0,13.0,80,0.00,,---,0.02,VWS V14.01,2013-02-04 02:38:00,
2013-02-03 21:39:00,23.1,17.9,29.92,West,281,15.0,15.0,80,0.00,,---,0.02,VWS V14.01,2013-02-04 02:39:00,
2013-02-03 21:41:00,23.0,17.5,29.92,West,274,6.0,15.0,79,0.00,,---,0.02,VWS V14.01,2013-02-04 02:41:00,
2013-02-03 21:43:00,23.0,19.5,29.92,NW,304,11.0,15.0,86,0.00,,---,0.02,VWS V14.01,2013-02-04 02:43:00,
2013-02-03 21:45:00,23.0,17.5,29.92,NW,309,6.0,15.0,79,0.00,,---,0.02,VWS V14.01,2013-02-04 02:45:00,
2013-02-03 21:46:00,23.0,17.5,29.92,NW,322,7.0,17.0,79,0.00,,---,0.02,VWS V14.01,2013-02-04 02:46:00,
2013-02-03 21:48:00,22.9,17.4,29.92,NW,310,9.0,17.0,79,0.00,,---,0.02,VWS V14.01,2013-02-04 02:48:00,
2013-02-03 21:50:00,22.9,17.4,29.92,WNW,303,6.0,17.0,79,0.00,,---,0.02,VWS V14.01,2013-02-04 02:50:00,
2013-02-03 21:51:00,22.9,17.4,29.92,WNW,286,4.0,17.0,79,0.00,,---,0.02,VWS V14.01,2013-02-04 02:51:00,
2013-02-03 21:52:00,22.9,17.4,29.92,WNW,292,5.0,17.0,79,0.00,,---,0.02,VWS V14.01,2013-02-04 02:52:00,
2013-02-03 21:54:00,22.9,17.4,29.92,NNW,338,10.0,17.0,79,0.00,,---,0.02,VWS V14.01,2013-02-04 02:54:00,
2013-02-03 21:55:00,22.9,17.4,29.92,North,5,3.0,17.0,79,0.00,,---,0.02,VWS V14.01,2013-02-04 02:55:00,
2013-02-03 21:57:00,22.8,17.6,29.92,NW,305,2.0,17.0,80,0.00,,---,0.02,VWS V14.01,2013-02-04 02:57:00,
2013-02-03 21:59:00,22.8,17.6,29.92,WNW,289,10.0,17.0,80,0.00,,---,0.02,VWS V14.01,2013-02-04 02:59:00,
2013-02-03 22:00:00,22.8,17.6,29.92,West,276,3.0,17.0,80,0.00,,---,0.02,VWS V14.01,2013-02-04 03:00:00,
2013-02-03 22:02:00,22.7,17.5,29.92,NW,319,4.0,17.0,80,0.00,,---,0.02,VWS V14.01,2013-02-04 03:02:00,
2013-02-03 22:05:00,22.7,17.5,29.92,NW,306,3.0,4.0,80,0.00,,---,0.02,VWS V14.01,2013-02-04 03:05:00,
2013-02-03 22:07:00,22.6,17.4,29.92,West,269,4.0,9.0,80,0.00,,---,0.02,VWS V14.01,2013-02-04 03:07:00,
2013-02-03 22:10:00,22.6,17.4,29.92,WNW,301,2.0,11.0,80,0.00,,---,0.02,VWS V14.01,2013-02-04 03:10:00,
2013-02-03 22:12:00,22.6,17.4,29.92,WNW,297,7.0,12.0,80,0.00,,---,0.02,VWS V14.01,2013-02-04 03:12:00,
2013-02-03 22:16:00,22.5,17.3,29.92,WSW,246,6.0,12.0,80,0.00,,---,0.02,VWS V14.01,2013-02-04 03:16:00,
2013-02-03 22:17:00,22.5,17.3,29.92,NW,309,5.0,12.0,80,0.00,,---,0.02,VWS V14.01,2013-02-04 03:17:00,
2013-02-03 22:18:00,22.4,17.2,29.93,West,269,6.0,16.0,80,0.00,,---,0.02,VWS V14.01,2013-02-04 03:18:00,
2013-02-03 22:21:00,22.4,17.2,29.93,WSW,255,9.0,16.0,80,0.00,,---,0.02,VWS V14.01,2013-02-04 03:21:00,
2013-02-03 22:22:00,22.3,16.8,29.93,NW,306,12.0,19.0,79,0.00,,---,0.02,VWS V14.01,2013-02-04 03:22:00,
2013-02-03 22:23:00,22.3,16.8,29.93,NNW,340,15.0,19.0,79,0.00,,---,0.02,VWS V14.01,2013-02-04 03:23:00,
2013-02-03 22:26:00,22.2,16.7,29.93,NW,319,7.0,19.0,79,0.00,,---,0.02,VWS V14.01,2013-02-04 03:26:00,
2013-02-03 22:27:00,22.2,16.7,29.93,NNW,340,3.0,19.0,79,0.00,,---,0.02,VWS V14.01,2013-02-04 03:27:00,
2013-02-03 22:29:00,22.2,16.7,29.93,NW,305,3.0,19.0,79,0.00,,---,0.02,VWS V14.01,2013-02-04 03:29:00,
2013-02-03 22:31:00,22.1,16.6,29.93,North,360,6.0,19.0,79,0.00,,---,0.02,VWS V14.01,2013-02-04 03:31:00,
2013-02-03 22:33:00,22.1,16.6,29.94,NNW,340,4.0,19.0,79,0.00,,---,0.02,VWS V14.01,2013-02-04 03:33:00,
2013-02-03 22:34:00,22.0,16.5,29.94,WSW,246,7.0,7.0,79,0.00,,---,0.02,VWS V14.01,2013-02-04 03:34:00,
2013-02-03 22:36:00,22.0,16.5,29.94,WNW,299,3.0,17.0,79,0.00,,---,0.02,VWS V14.01,2013-02-04 03:36:00,
2013-02-03 22:37:00,22.0,16.5,29.94,NW,311,2.0,17.0,79,0.00,,---,0.02,VWS V14.01,2013-02-04 03:37:00,
2013-02-03 22:38:00,21.9,16.4,29.94,WNW,293,9.0,17.0,79,0.00,,---,0.02,VWS V14.01,2013-02-04 03:38:00,
2013-02-03 22:40:00,21.9,16.4,29.93,NW,318,4.0,17.0,79,0.00,,---,0.02,VWS V14.01,2013-02-04 03:40:00,
2013-02-03 22:42:00,21.8,16.3,29.94,NNW,338,17.0,17.0,79,0.00,,---,0.02,VWS V14.01,2013-02-04 03:42:00,
2013-02-03 22:43:00,21.8,16.3,29.94,West,262,6.0,17.0,79,0.00,,---,0.02,VWS V14.01,2013-02-04 03:43:00,
2013-02-03 22:45:00,21.7,16.2,29.94,West,266,4.0,17.0,79,0.00,,---,0.02,VWS V14.01,2013-02-04 03:45:00,
2013-02-03 22:47:00,21.7,16.2,29.94,NW,310,3.0,17.0,79,0.00,,---,0.02,VWS V14.01,2013-02-04 03:47:00,
2013-02-03 22:48:00,21.7,16.2,29.94,WNW,303,3.0,17.0,79,0.00,,---,0.02,VWS V14.01,2013-02-04 03:48:00,
2013-02-03 22:50:00,21.6,16.1,29.94,North,360,6.0,17.0,79,0.00,,---,0.02,VWS V14.01,2013-02-04 03:50:00,
2013-02-03 22:52:00,21.6,16.1,29.94,WNW,300,4.0,17.0,79,0.00,,---,0.02,VWS V14.01,2013-02-04 03:52:00,
2013-02-03 22:53:00,21.5,16.0,29.94,WNW,295,4.0,17.0,79,0.00,,---,0.02,VWS V14.01,2013-02-04 03:53:00,
2013-02-03 22:55:00,21.5,16.0,29.94,WNW,294,6.0,17.0,79,0.00,,---,0.02,VWS V14.01,2013-02-04 03:55:00,
2013-02-03 22:57:00,21.5,16.0,29.94,WNW,299,4.0,17.0,79,0.00,,---,0.02,VWS V14.01,2013-02-04 03:57:00,
2013-02-03 22:59:00,21.4,15.9,29.94,NW,315,3.0,17.0,79,0.00,,---,0.02,VWS V14.01,2013-02-04 03:59:00,
2013-02-03 23:03:00,21.4,15.9,29.94,West,281,2.0,4.0,79,0.00,,---,0.02,VWS V14.01,2013-02-04 04:03:00,
2013-02-03 23:04:00,21.4,15.9,29.94,WNW,289,1.0,6.0,79,0.00,,---,0.02,VWS V14.01,2013-02-04 04:04:00,
2013-02-03 23:08:00,21.3,15.8,29.94,NNW,327,2.0,9.0,79,0.00,,---,0.02,VWS V14.01,2013-02-04 04:08:00,
2013-02-03 23:09:00,21.3,15.8,29.94,WNW,286,0.0,9.0,79,0.00,,---,0.02,VWS V14.01,2013-02-04 04:09:00,
2013-02-03 23:10:00,21.3,15.8,29.94,WNW,298,5.0,9.0,79,0.00,,---,0.02,VWS V14.01,2013-02-04 04:10:00,
2013-02-03 23:13:00,21.2,15.7,29.94,West,267,6.0,10.0,79,0.00,,---,0.02,VWS V14.01,2013-02-04 04:13:00,
2013-02-03 23:14:00,21.2,16.0,29.94,WNW,297,4.0,12.0,80,0.00,,---,0.02,VWS V14.01,2013-02-04 04:14:00,
2013-02-03 23:15:00,21.2,16.0,29.94,WNW,286,2.0,12.0,80,0.00,,---,0.02,VWS V14.01,2013-02-04 04:15:00,
2013-02-03 23:18:00,21.2,16.0,29.94,NW,311,11.0,12.0,80,0.00,,---,0.02,VWS V14.01,2013-02-04 04:18:00,
2013-02-03 23:19:00,21.1,15.9,29.94,WNW,298,8.0,12.0,80,0.00,,---,0.02,VWS V14.01,2013-02-04 04:19:00,
2013-02-03 23:20:00,21.1,15.9,29.94,WNW,299,5.0,12.0,80,0.00,,---,0.02,VWS V14.01,2013-02-04 04:20:00,
2013-02-03 23:23:00,21.1,15.9,29.94,WNW,282,5.0,12.0,80,0.00,,---,0.02,VWS V14.01,2013-02-04 04:23:00,
2013-02-03 23:24:00,21.0,16.1,29.94,WNW,287,6.0,14.0,81,0.00,,---,0.02,VWS V14.01,2013-02-04 04:24:00,
2013-02-03 23:25:00,21.0,16.1,29.94,WNW,293,4.0,14.0,81,0.00,,---,0.02,VWS V14.01,2013-02-04 04:25:00,
2013-02-03 23:26:00,21.0,16.1,29.94,West,276,7.0,14.0,81,0.00,,---,0.02,VWS V14.01,2013-02-04 04:26:00,
2013-02-03 23:29:00,21.0,16.1,29.94,WNW,284,3.0,14.0,81,0.00,,---,0.02,VWS V14.01,2013-02-04 04:29:00,
2013-02-03 23:30:00,21.0,16.1,29.94,WSW,254,10.0,14.0,81,0.00,,---,0.02,VWS V14.01,2013-02-04 04:30:00,
2013-02-03 23:31:00,20.9,16.0,29.94,WNW,296,5.0,14.0,81,0.00,,---,0.02,VWS V14.01,2013-02-04 04:31:00,
2013-02-03 23:34:00,20.9,16.0,29.95,NNW,344,5.0,5.0,81,0.00,,---,0.02,VWS V14.01,2013-02-04 04:34:00,
2013-02-03 23:36:00,20.9,16.3,29.95,NNW,330,13.0,13.0,82,0.00,,---,0.02,VWS V14.01,2013-02-04 04:36:00,
2013-02-03 23:37:00,20.9,16.3,29.94,NNW,334,6.0,14.0,82,0.00,,---,0.02,VWS V14.01,2013-02-04 04:37:00,
2013-02-03 23:39:00,20.9,16.3,29.94,NW,309,5.0,14.0,82,0.00,,---,0.02,VWS V14.01,2013-02-04 04:39:00,
2013-02-03 23:41:00,20.9,16.3,29.95,WNW,290,4.0,14.0,82,0.00,,---,0.02,VWS V14.01,2013-02-04 04:41:00,
2013-02-03 23:42:00,20.9,16.3,29.95,WNW,284,2.0,14.0,82,0.00,,---,0.02,VWS V14.01,2013-02-04 04:42:00,
2013-02-03 23:44:00,20.9,16.3,29.95,WNW,300,4.0,14.0,82,0.00,,---,0.02,VWS V14.01,2013-02-04 04:44:00,
2013-02-03 23:46:00,20.9,16.3,29.95,WSW,258,1.0,14.0,82,0.00,,---,0.02,VWS V14.01,2013-02-04 04:46:00,
2013-02-03 23:47:00,20.9,16.3,29.95,NW,321,6.0,14.0,82,0.00,,---,0.02,VWS V14.01,2013-02-04 04:47:00,
2013-02-03 23:49:00,20.9,16.6,29.95,WNW,282,2.0,14.0,83,0.00,,---,0.02,VWS V14.01,2013-02-04 04:49:00,
2013-02-03 23:51:00,20.9,16.6,29.95,West,275,4.0,14.0,83,0.00,,---,0.02,VWS V14.01,2013-02-04 04:51:00,
2013-02-03 23:52:00,20.9,16.6,29.95,WNW,292,4.0,14.0,83,0.00,,---,0.02,VWS V14.01,2013-02-04 04:52:00,
2013-02-03 23:53:00,20.9,16.6,29.95,WNW,299,3.0,14.0,83,0.00,,---,0.02,VWS V14.01,2013-02-04 04:53:00,
2013-02-03 23:55:00,20.9,16.6,29.95,NW,304,2.0,14.0,83,0.00,,---,0.02,VWS V14.01,2013-02-04 04:55:00,
2013-02-03 23:57:00,20.9,16.6,29.95,NW,325,0.0,14.0,83,0.00,,---,0.02,VWS V14.01,2013-02-04 04:57:00,
2013-02-03 23:58:00,20.9,16.6,29.95,NW,304,4.0,14.0,83,0.00,,---,0.02,VWS V14.01,2013-02-04 04:58:00,